| time (UTC) | temp F | wind direction | speed MPH | gust MPH | rain 1hr in | rain 24hr in | rain mn in | humidity % | barometer mb |
| 20260903184351 | 90 | 324 | 1.0 | 4.0 | 0.00 | 0.00 | 0.00 | 57 | 1021.2 |
| 20260903184251 | 90 | 206 | 1.0 | 4.0 | 0.00 | 0.00 | 0.00 | 56 | 1021.2 |
| 20260903184154 | 90 | 206 | 1.0 | 4.0 | 0.00 | 0.00 | 0.00 | 56 | 1021.2 |
| 20260903184051 | 89 | 202 | 1.0 | 4.0 | 0.00 | 0.00 | 0.00 | 56 | 1021.3 |
| 20260903183950 | 89 | 197 | 1.0 | 4.0 | 0.00 | 0.00 | 0.00 | 57 | 1021.2 |
| 20260903183852 | 89 | 296 | 1.0 | 3.0 | 0.00 | 0.00 | 0.00 | 57 | 1021.4 |
| 20260903183755 | 89 | 100 | 1.0 | 3.0 | 0.00 | 0.00 | 0.00 | 57 | 1021.3 |
| 20260903183652 | 89 | 100 | 1.0 | 3.0 | 0.00 | 0.00 | 0.00 | 56 | 1021.4 |
| 20260903183550 | 89 | 100 | 1.0 | 3.0 | 0.00 | 0.00 | 0.00 | 55 | 1021.4 |
| 20260903183450 | 89 | 100 | 1.0 | 3.0 | 0.00 | 0.00 | 0.00 | 55 | 1021.4 |
| 20260903183351 | 89 | 100 | 1.0 | 3.0 | 0.00 | 0.00 | 0.00 | 57 | 1021.4 |
| 20260903183252 | 89 | 100 | 1.0 | 3.0 | 0.00 | 0.00 | 0.00 | 57 | 1021.4 |
| 20260903183147 | 89 | 101 | 1.0 | 3.0 | 0.00 | 0.00 | 0.00 | 58 | 1021.4 |
| 20260903183047 | 89 | 109 | 1.0 | 5.0 | 0.00 | 0.00 | 0.00 | 56 | 1021.5 |
| 20260903183018 | 89 | 107 | 2.0 | 5.0 | 0.00 | 0.00 | 0.00 | 56 | 1021.4 |
| 20260903183007 | 89 | 109 | 2.0 | 5.0 | 0.00 | 0.00 | 0.00 | 56 | 1021.4 |
| 20260903182748 | 89 | 107 | 2.0 | 5.0 | 0.00 | 0.00 | 0.00 | 57 | 1021.5 |
| 20260903182722 | 89 | 349 | 2.0 | 5.0 | 0.00 | 0.00 | 0.00 | 56 | 1021.5 |
| 20260903182710 | 89 | 107 | 2.0 | 5.0 | 0.00 | 0.00 | 0.00 | 57 | 1021.5 |
| 20260903182449 | 89 | 349 | 2.0 | 5.0 | 0.00 | 0.00 | 0.00 | 58 | 1021.5 |
| 20260903182345 | 89 | 346 | 2.0 | 5.0 | 0.00 | 0.00 | 0.00 | 57 | 1021.5 |
| 20260903182245 | 89 | 344 | 2.0 | 5.0 | 0.00 | 0.00 | 0.00 | 58 | 1021.4 |
| 20260903182142 | 89 | 65 | 2.0 | 6.0 | 0.00 | 0.00 | 0.00 | 57 | 1021.5 |
| 20260903182045 | 89 | 306 | 2.0 | 6.0 | 0.00 | 0.00 | 0.00 | 56 | 1021.5 |
| 20260903182025 | 89 | 288 | 2.0 | 6.0 | 0.00 | 0.00 | 0.00 | 55 | 1021.5 |
| 20260903182020 | 89 | 298 | 2.0 | 6.0 | 0.00 | 0.00 | 0.00 | 55 | 1021.7 |
| 20260903181947 | 89 | 306 | 2.0 | 6.0 | 0.00 | 0.00 | 0.00 | 56 | 1021.5 |
| 20260903181812 | 89 | 313 | 2.0 | 6.0 | 0.00 | 0.00 | 0.00 | 56 | 1021.7 |
| 20260903181755 | 89 | 292 | 2.0 | 6.0 | 0.00 | 0.00 | 0.00 | 55 | 1021.5 |
| 20260903181507 | 89 | 288 | 2.0 | 6.0 | 0.00 | 0.00 | 0.00 | 56 | 1021.5 |
| 20260903181313 | 89 | 304 | 2.0 | 4.0 | 0.00 | 0.00 | 0.00 | 56 | 1021.7 |
| 20260903181303 | 89 | 291 | 2.0 | 6.0 | 0.00 | 0.00 | 0.00 | 57 | 1021.7 |
| 20260903181044 | 89 | 66 | 2.0 | 7.0 | 0.00 | 0.00 | 0.00 | 56 | 1021.8 |
| 20260903181029 | 89 | 16 | 3.0 | 8.0 | 0.00 | 0.00 | 0.00 | 56 | 1021.7 |
| 20260903181014 | 89 | 355 | 2.0 | 7.0 | 0.00 | 0.00 | 0.00 | 56 | 1021.8 |
| 20260903180745 | 90 | 16 | 3.0 | 10.0 | 0.00 | 0.00 | 0.00 | 56 | 1021.7 |
| 20260903180643 | 90 | 16 | 3.0 | 10.0 | 0.00 | 0.00 | 0.00 | 56 | 1021.7 |
| 20260903180542 | 90 | 11 | 3.0 | 10.0 | 0.00 | 0.00 | 0.00 | 56 | 1021.7 |
| 20260903180442 | 90 | 348 | 3.0 | 10.0 | 0.00 | 0.00 | 0.00 | 55 | 1021.7 |
| 20260903180342 | 90 | 347 | 3.0 | 10.0 | 0.00 | 0.00 | 0.00 | 55 | 1021.7 |
| 20260903180251 | 90 | 346 | 3.0 | 10.0 | 0.00 | 0.00 | 0.00 | 55 | 1021.7 |
| 20260903180216 | 91 | 13 | 3.0 | 10.0 | 0.00 | 0.00 | 0.00 | 54 | 1021.5 |
| 20260903180206 | 91 | 348 | 3.0 | 10.0 | 0.00 | 0.00 | 0.00 | 54 | 1021.7 |
| 20260903175944 | 91 | 22 | 3.0 | 10.0 | 0.00 | 0.00 | 0.00 | 54 | 1021.8 |
| 20260903175918 | 91 | 19 | 2.0 | 5.0 | 0.00 | 0.00 | 0.00 | 57 | 1021.7 |
| 20260903175906 | 91 | 5 | 2.0 | 10.0 | 0.00 | 0.00 | 0.00 | 56 | 1021.7 |
| 20260903175641 | 91 | 348 | 2.0 | 5.0 | 0.00 | 0.00 | 0.00 | 56 | 1021.7 |
| 20260903175543 | 91 | 350 | 3.0 | 11.0 | 0.00 | 0.00 | 0.00 | 56 | 1021.7 |
| 20260903175442 | 90 | 349 | 2.0 | 11.0 | 0.00 | 0.00 | 0.00 | 57 | 1021.8 |
| 20260903175343 | 90 | 67 | 2.0 | 11.0 | 0.00 | 0.00 | 0.00 | 56 | 1021.7 |
| 20260903175243 | 90 | 40 | 3.0 | 11.0 | 0.00 | 0.00 | 0.00 | 55 | 1021.7 |
| 20260903175219 | 91 | 247 | 3.0 | 11.0 | 0.00 | 0.00 | 0.00 | 56 | 1021.7 |
| 20260903175205 | 90 | 291 | 2.0 | 11.0 | 0.00 | 0.00 | 0.00 | 55 | 1021.8 |
| 20260903175014 | 90 | 269 | 3.0 | 11.0 | 0.00 | 0.00 | 0.00 | 57 | 1021.8 |
| 20260903175004 | 90 | 71 | 3.0 | 11.0 | 0.00 | 0.00 | 0.00 | 55 | 1021.7 |
| 20260903174743 | 90 | 292 | 3.0 | 11.0 | 0.00 | 0.00 | 0.00 | 56 | 1021.8 |
| 20260903174642 | 90 | 198 | 2.0 | 11.0 | 0.00 | 0.00 | 0.00 | 57 | 1021.7 |
| 20260903174622 | 90 | 196 | 2.0 | 6.0 | 0.00 | 0.00 | 0.00 | 55 | 1021.7 |
| 20260903174610 | 90 | 206 | 2.0 | 6.0 | 0.00 | 0.00 | 0.00 | 57 | 1021.8 |
| 20260903174342 | 90 | 86 | 2.0 | 6.0 | 0.00 | 0.00 | 0.00 | 54 | 1021.8 |
| 20260903174241 | 90 | 100 | 2.0 | 6.0 | 0.00 | 0.00 | 0.00 | 54 | 1021.8 |
| 20260903174138 | 90 | 118 | 2.0 | 6.0 | 0.00 | 0.00 | 0.00 | 54 | 1021.9 |
| 20260903174036 | 90 | 102 | 2.0 | 6.0 | 0.00 | 0.00 | 0.00 | 54 | 1021.9 |
| 20260903173927 | 90 | 115 | 2.0 | 6.0 | 0.00 | 0.00 | 0.00 | 55 | 1021.9 |
| 20260903173854 | 90 | 80 | 2.0 | 6.0 | 0.00 | 0.00 | 0.00 | 54 | 1021.9 |
| 20260903173846 | 90 | 108 | 2.0 | 6.0 | 0.00 | 0.00 | 0.00 | 55 | 1021.9 |
| 20260903173626 | 90 | 81 | 2.0 | 6.0 | 0.00 | 0.00 | 0.00 | 54 | 1021.9 |
| 20260903173526 | 90 | 71 | 2.0 | 7.0 | 0.00 | 0.00 | 0.00 | 54 | 1022.0 |
| 20260903173418 | 90 | 68 | 2.0 | 7.0 | 0.00 | 0.00 | 0.00 | 54 | 1022.0 |
| 20260903173318 | 90 | 240 | 3.0 | 7.0 | 0.00 | 0.00 | 0.00 | 56 | 1021.9 |
| 20260903173218 | 90 | 229 | 2.0 | 7.0 | 0.00 | 0.00 | 0.00 | 56 | 1022.0 |
| 20260903173119 | 90 | 232 | 3.0 | 7.0 | 0.00 | 0.00 | 0.00 | 57 | 1021.9 |
| 20260903173020 | 90 | 79 | 3.0 | 8.0 | 0.00 | 0.00 | 0.00 | 56 | 1021.9 |
| 20260903172914 | 89 | 85 | 3.0 | 8.0 | 0.00 | 0.00 | 0.00 | 56 | 1021.9 |
| 20260903172849 | 89 | 187 | 3.0 | 8.0 | 0.00 | 0.00 | 0.00 | 56 | 1021.9 |
| 20260903172838 | 89 | 190 | 3.0 | 8.0 | 0.00 | 0.00 | 0.00 | 59 | 1022.0 |
| 20260903172616 | 90 | 55 | 3.0 | 8.0 | 0.00 | 0.00 | 0.00 | 55 | 1022.0 |
| 20260903172526 | 89 | 113 | 3.0 | 8.0 | 0.00 | 0.00 | 0.00 | 58 | 1021.9 |
| 20260903172515 | 90 | 82 | 3.0 | 8.0 | 0.00 | 0.00 | 0.00 | 57 | 1022.0 |
| 20260903172507 | 89 | 65 | 3.0 | 8.0 | 0.00 | 0.00 | 0.00 | 57 | 1021.9 |
| 20260903172503 | 89 | 55 | 3.0 | 8.0 | 0.00 | 0.00 | 0.00 | 57 | 1022.0 |
| 20260903172443 | 90 | 69 | 3.0 | 8.0 | 0.00 | 0.00 | 0.00 | 57 | 1021.9 |
| 20260903172420 | 89 | 80 | 3.0 | 8.0 | 0.00 | 0.00 | 0.00 | 56 | 1021.9 |
| 20260903171905 | 89 | 54 | 3.0 | 9.0 | 0.00 | 0.00 | 0.00 | 57 | 1021.9 |
| 20260903171826 | 89 | 92 | 3.0 | 9.0 | 0.00 | 0.00 | 0.00 | 58 | 1022.1 |
| 20260903171818 | 90 | 73 | 3.0 | 9.0 | 0.00 | 0.00 | 0.00 | 56 | 1022.0 |
| 20260903171754 | 89 | 80 | 3.0 | 9.0 | 0.00 | 0.00 | 0.00 | 58 | 1022.0 |
| 20260903171623 | 89 | 63 | 3.0 | 9.0 | 0.00 | 0.00 | 0.00 | 58 | 1022.0 |
| 20260903171400 | 89 | 65 | 3.0 | 9.0 | 0.00 | 0.00 | 0.00 | 58 | 1022.0 |
| 20260903171300 | 89 | 65 | 3.0 | 9.0 | 0.00 | 0.00 | 0.00 | 59 | 1022.0 |
| 20260903171159 | 89 | 34 | 2.0 | 9.0 | 0.00 | 0.00 | 0.00 | 59 | 1022.0 |
| 20260903171059 | 89 | 104 | 3.0 | 9.0 | 0.00 | 0.00 | 0.00 | 61 | 1022.0 |
| 20260903171000 | 89 | 69 | 2.0 | 9.0 | 0.00 | 0.00 | 0.00 | 58 | 1022.0 |
| 20260903170857 | 89 | 71 | 2.0 | 8.0 | 0.00 | 0.00 | 0.00 | 58 | 1022.0 |
| 20260903170759 | 88 | 110 | 2.0 | 6.0 | 0.00 | 0.00 | 0.00 | 58 | 1022.0 |
| 20260903170700 | 88 | 121 | 2.0 | 6.0 | 0.00 | 0.00 | 0.00 | 57 | 1022.1 |
| 20260903170600 | 88 | 126 | 2.0 | 6.0 | 0.00 | 0.00 | 0.00 | 58 | 1022.0 |
| 20260903170500 | 88 | 119 | 2.0 | 6.0 | 0.00 | 0.00 | 0.00 | 56 | 1022.1 |
| 20260903170437 | 89 | 119 | 3.0 | 6.0 | 0.00 | 0.00 | 0.00 | 57 | 1022.0 |
| 20260903170424 | 89 | 119 | 2.0 | 6.0 | 0.00 | 0.00 | 0.00 | 57 | 1022.0 |
| 20260903170156 | 89 | 117 | 2.0 | 6.0 | 0.00 | 0.00 | 0.00 | 58 | 1022.1 |
| 20260903170055 | 89 | 86 | 2.0 | 5.0 | 0.00 | 0.00 | 0.00 | 57 | 1022.0 |
| 20260903170042 | 89 | 121 | 2.0 | 5.0 | 0.00 | 0.00 | 0.00 | 59 | 1022.1 |
| 20260903170023 | 89 | 82 | 2.0 | 5.0 | 0.00 | 0.00 | 0.00 | 58 | 1022.0 |
| 20260903165754 | 89 | 19 | 2.0 | 5.0 | 0.00 | 0.00 | 0.00 | 57 | 1022.1 |
| 20260903165655 | 88 | 17 | 2.0 | 5.0 | 0.00 | 0.00 | 0.00 | 57 | 1022.1 |
| 20260903165622 | 89 | 32 | 1.0 | 5.0 | 0.00 | 0.00 | 0.00 | 57 | 1022.1 |
| 20260903165612 | 89 | 17 | 2.0 | 5.0 | 0.00 | 0.00 | 0.00 | 56 | 1022.1 |
| 20260903165351 | 89 | 63 | 1.0 | 5.0 | 0.00 | 0.00 | 0.00 | 57 | 1022.2 |
| 20260903165329 | 89 | 70 | 1.0 | 4.0 | 0.00 | 0.00 | 0.00 | 57 | 1022.2 |
| 20260903165319 | 89 | 72 | 1.0 | 4.0 | 0.00 | 0.00 | 0.00 | 58 | 1022.2 |
| 20260903165052 | 89 | 70 | 2.0 | 4.0 | 0.00 | 0.00 | 0.00 | 57 | 1022.2 |
| 20260903165023 | 88 | 78 | 2.0 | 4.0 | 0.00 | 0.00 | 0.00 | 60 | 1022.3 |
| 20260903165012 | 89 | 73 | 2.0 | 4.0 | 0.00 | 0.00 | 0.00 | 59 | 1022.2 |
| 20260903164753 | 88 | 82 | 2.0 | 4.0 | 0.00 | 0.00 | 0.00 | 62 | 1022.3 |
| 20260903164652 | 87 | 82 | 2.0 | 5.0 | 0.00 | 0.00 | 0.00 | 59 | 1022.3 |
| 20260903164558 | 87 | 82 | 2.0 | 5.0 | 0.00 | 0.00 | 0.00 | 59 | 1022.4 |
| 20260903164449 | 87 | 80 | 2.0 | 5.0 | 0.00 | 0.00 | 0.00 | 60 | 1022.4 |
| 20260903164420 | 87 | 78 | 2.0 | 5.0 | 0.00 | 0.00 | 0.00 | 61 | 1022.5 |
| 20260903164411 | 87 | 78 | 2.0 | 5.0 | 0.00 | 0.00 | 0.00 | 62 | 1022.4 |
| 20260903164149 | 87 | 86 | 2.0 | 5.0 | 0.00 | 0.00 | 0.00 | 62 | 1022.4 |
| 20260903164048 | 86 | 80 | 1.0 | 5.0 | 0.00 | 0.00 | 0.00 | 62 | 1022.4 |
| 20260903164022 | 86 | 69 | 1.0 | 5.0 | 0.00 | 0.00 | 0.00 | 62 | 1022.5 |
| 20260903164009 | 86 | 69 | 1.0 | 5.0 | 0.00 | 0.00 | 0.00 | 61 | 1022.5 |
| 20260903163815 | 86 | 61 | 0.0 | 4.0 | 0.00 | 0.00 | 0.00 | 63 | 1022.4 |
| 20260903163805 | 86 | 68 | 1.0 | 5.0 | 0.00 | 0.00 | 0.00 | 62 | 1022.5 |
| 20260903163542 | 86 | 61 | 0.0 | 3.0 | 0.00 | 0.00 | 0.00 | 66 | 1022.6 |
| 20260903163440 | 85 | 339 | 0.0 | 0.0 | 0.00 | 0.00 | 0.00 | 64 | 1022.4 |
| 20260903163354 | 85 | 306 | 0.0 | 0.0 | 0.00 | 0.00 | 0.00 | 64 | 1022.4 |
| 20260903163349 | 85 | 306 | 0.0 | 0.0 | 0.00 | 0.00 | 0.00 | 64 | 1022.5 |
| 20260903163339 | 85 | 306 | 0.0 | 0.0 | 0.00 | 0.00 | 0.00 | 65 | 1022.4 |
| 20260903163316 | 85 | 306 | 0.0 | 0.0 | 0.00 | 0.00 | 0.00 | 63 | 1022.5 |
| 20260903162935 | 85 | 306 | 0.0 | 0.0 | 0.00 | 0.00 | 0.00 | 65 | 1022.4 |
| 20260903162834 | 85 | 306 | 0.0 | 0.0 | 0.00 | 0.00 | 0.00 | 66 | 1022.5 |
| 20260903162735 | 85 | 306 | 0.0 | 0.0 | 0.00 | 0.00 | 0.00 | 67 | 1022.5 |
| 20260903162728 | 85 | 306 | 0.0 | 2.0 | 0.00 | 0.00 | 0.00 | 65 | 1022.5 |
| 20260903162724 | 85 | 306 | 0.0 | 2.0 | 0.00 | 0.00 | 0.00 | 65 | 1022.5 |
| 20260903162719 | 85 | 306 | 0.0 | 2.0 | 0.00 | 0.00 | 0.00 | 65 | 1022.6 |
| 20260903162701 | 85 | 306 | 0.0 | 0.0 | 0.00 | 0.00 | 0.00 | 66 | 1022.6 |
| 20260903162641 | 85 | 306 | 0.0 | 1.0 | 0.00 | 0.00 | 0.00 | 66 | 1022.5 |
| 20260903162132 | 85 | 306 | 0.0 | 2.0 | 0.00 | 0.00 | 0.00 | 64 | 1022.6 |
| 20260903162031 | 85 | 306 | 1.0 | 2.0 | 0.00 | 0.00 | 0.00 | 64 | 1022.6 |
| 20260903161930 | 85 | 306 | 1.0 | 2.0 | 0.00 | 0.00 | 0.00 | 65 | 1022.6 |
| 20260903161853 | 85 | 306 | 1.0 | 2.0 | 0.00 | 0.00 | 0.00 | 66 | 1022.5 |
| 20260903161845 | 85 | 306 | 1.0 | 2.0 | 0.00 | 0.00 | 0.00 | 65 | 1022.5 |
| 20260903161627 | 85 | 306 | 1.0 | 2.0 | 0.00 | 0.00 | 0.00 | 63 | 1022.5 |
| 20260903161525 | 85 | 306 | 1.0 | 3.0 | 0.00 | 0.00 | 0.00 | 63 | 1022.5 |
| 20260903161422 | 85 | 306 | 1.0 | 3.0 | 0.00 | 0.00 | 0.00 | 64 | 1022.5 |
| 20260903161354 | 84 | 306 | 2.0 | 3.0 | 0.00 | 0.00 | 0.00 | 65 | 1022.6 |
| 20260903161343 | 85 | 306 | 1.0 | 3.0 | 0.00 | 0.00 | 0.00 | 65 | 1022.5 |
| 20260903161122 | 85 | 306 | 2.0 | 3.0 | 0.00 | 0.00 | 0.00 | 66 | 1022.6 |
| 20260903161023 | 84 | 306 | 2.0 | 3.0 | 0.00 | 0.00 | 0.00 | 63 | 1022.6 |
| 20260903160922 | 84 | 306 | 2.0 | 3.0 | 0.00 | 0.00 | 0.00 | 64 | 1022.5 |
| 20260903160822 | 84 | 306 | 2.0 | 3.0 | 0.00 | 0.00 | 0.00 | 63 | 1022.5 |
| 20260903160804 | 84 | 306 | 2.0 | 3.0 | 0.00 | 0.00 | 0.00 | 63 | 1022.5 |
| 20260903160751 | 84 | 306 | 2.0 | 3.0 | 0.00 | 0.00 | 0.00 | 64 | 1022.5 |
| 20260903160518 | 84 | 306 | 2.0 | 4.0 | 0.00 | 0.00 | 0.00 | 64 | 1022.6 |
| 20260903160418 | 84 | 306 | 2.0 | 4.0 | 0.00 | 0.00 | 0.00 | 63 | 1022.5 |
| 20260903160352 | 84 | 306 | 2.0 | 4.0 | 0.00 | 0.00 | 0.00 | 65 | 1022.6 |
| 20260903160339 | 84 | 306 | 2.0 | 4.0 | 0.00 | 0.00 | 0.00 | 65 | 1022.6 |
| 20260903160116 | 84 | 306 | 2.0 | 4.0 | 0.00 | 0.00 | 0.00 | 65 | 1022.6 |
| 20260903160010 | 84 | 306 | 2.0 | 4.0 | 0.00 | 0.00 | 0.00 | 65 | 1022.6 |
| 20260903155909 | 84 | 306 | 2.0 | 4.0 | 0.00 | 0.00 | 0.00 | 65 | 1022.6 |
| 20260903155809 | 84 | 306 | 2.0 | 4.0 | 0.00 | 0.00 | 0.00 | 65 | 1022.6 |
| 20260903155707 | 84 | 305 | 2.0 | 4.0 | 0.00 | 0.00 | 0.00 | 65 | 1022.6 |
| 20260903155608 | 84 | 305 | 2.0 | 4.0 | 0.00 | 0.00 | 0.00 | 65 | 1022.6 |
| 20260903155558 | 86 | 211 | 1.0 | 5.0 | 0.00 | 0.00 | 0.00 | 66 | 1022.6 |
| 20260903155554 | 85 | 303 | 2.0 | 3.0 | 0.00 | 0.00 | 0.00 | 67 | 1022.6 |
| 20260903155533 | 84 | 304 | 2.0 | 3.0 | 0.00 | 0.00 | 0.00 | 65 | 1022.6 |
| 20260903155517 | 84 | 304 | 2.0 | 3.0 | 0.00 | 0.00 | 0.00 | 66 | 1022.6 |
| 20260903155230 | 85 | 350 | 1.0 | 3.0 | 0.00 | 0.00 | 0.00 | 65 | 1022.6 |
| 20260903155226 | 85 | 350 | 1.0 | 3.0 | 0.00 | 0.00 | 0.00 | 64 | 1022.7 |
| 20260903155220 | 85 | 349 | 1.0 | 3.0 | 0.00 | 0.00 | 0.00 | 65 | 1022.6 |
| 20260903155208 | 85 | 303 | 1.0 | 3.0 | 0.00 | 0.00 | 0.00 | 66 | 1022.6 |
| 20260903155149 | 85 | 347 | 1.0 | 3.0 | 0.00 | 0.00 | 0.00 | 66 | 1022.6 |
| 20260903154904 | 85 | 350 | 1.0 | 3.0 | 0.00 | 0.00 | 0.00 | 64 | 1022.5 |
| 20260903154852 | 85 | 349 | 1.0 | 3.0 | 0.00 | 0.00 | 0.00 | 66 | 1022.6 |
| 20260903154825 | 85 | 349 | 1.0 | 3.0 | 0.00 | 0.00 | 0.00 | 66 | 1022.6 |
| 20260903154700 | 85 | 349 | 1.0 | 3.0 | 0.00 | 0.00 | 0.00 | 66 | 1022.6 |
| 20260903154644 | 85 | 350 | 1.0 | 3.0 | 0.00 | 0.00 | 0.00 | 66 | 1022.7 |
| 20260903154625 | 85 | 350 | 1.0 | 3.0 | 0.00 | 0.00 | 0.00 | 65 | 1022.6 |
| 20260903154133 | 85 | 240 | 1.0 | 2.0 | 0.00 | 0.00 | 0.00 | 63 | 1022.6 |
| 20260903154015 | 85 | 240 | 1.0 | 2.0 | 0.00 | 0.00 | 0.00 | 62 | 1022.6 |
| 20260903154009 | 85 | 240 | 1.0 | 4.0 | 0.00 | 0.00 | 0.00 | 63 | 1022.6 |
| 20260903153943 | 85 | 240 | 1.0 | 2.0 | 0.00 | 0.00 | 0.00 | 63 | 1022.7 |
| 20260903153934 | 86 | 241 | 1.0 | 4.0 | 0.00 | 0.00 | 0.00 | 62 | 1022.7 |
| 20260903153927 | 86 | 241 | 1.0 | 5.0 | 0.00 | 0.00 | 0.00 | 63 | 1022.7 |
| 20260903153921 | 86 | 240 | 1.0 | 5.0 | 0.00 | 0.00 | 0.00 | 63 | 1022.6 |
| 20260903153914 | 86 | 294 | 1.0 | 5.0 | 0.00 | 0.00 | 0.00 | 64 | 1022.7 |
| 20260903153908 | 86 | 111 | 1.0 | 5.0 | 0.00 | 0.00 | 0.00 | 64 | 1022.7 |
| 20260903153903 | 86 | 211 | 1.0 | 5.0 | 0.00 | 0.00 | 0.00 | 66 | 1022.6 |
| 20260903153851 | 85 | 240 | 1.0 | 2.0 | 0.00 | 0.00 | 0.00 | 62 | 1022.6 |
| 20260903153830 | 85 | 241 | 1.0 | 2.0 | 0.00 | 0.00 | 0.00 | 62 | 1022.6 |
| 20260903153637 | 85 | 240 | 1.0 | 4.0 | 0.00 | 0.00 | 0.00 | 62 | 1022.6 |
| 20260903153605 | 85 | 241 | 1.0 | 4.0 | 0.00 | 0.00 | 0.00 | 62 | 1022.6 |
| 20260903153527 | 85 | 240 | 1.0 | 4.0 | 0.00 | 0.00 | 0.00 | 63 | 1022.6 |
| 20260903153457 | 85 | 241 | 1.0 | 4.0 | 0.00 | 0.00 | 0.00 | 63 | 1022.6 |
| 20260903153249 | 86 | 241 | 1.0 | 4.0 | 0.00 | 0.00 | 0.00 | 63 | 1022.6 |
| 20260903153222 | 86 | 240 | 1.0 | 4.0 | 0.00 | 0.00 | 0.00 | 62 | 1022.6 |
| 20260903152605 | 86 | 294 | 1.0 | 5.0 | 0.00 | 0.00 | 0.00 | 63 | 1022.6 |
| 20260903152429 | 85 | 214 | 1.0 | 4.0 | 0.00 | 0.00 | 0.00 | 66 | 1022.6 |
| 20260903152424 | 85 | 204 | 1.0 | 5.0 | 0.00 | 0.00 | 0.00 | 66 | 1022.6 |
| 20260903152407 | 86 | 213 | 1.0 | 5.0 | 0.00 | 0.00 | 0.00 | 66 | 1022.6 |
| 20260903152224 | 86 | 111 | 1.0 | 5.0 | 0.00 | 0.00 | 0.00 | 65 | 1022.6 |
| 20260903152036 | 86 | 211 | 1.0 | 5.0 | 0.00 | 0.00 | 0.00 | 67 | 1022.6 |
| 20260903151522 | 85 | 203 | 1.0 | 5.0 | 0.00 | 0.00 | 0.00 | 66 | 1022.6 |
| 20260903151419 | 85 | 236 | 1.0 | 5.0 | 0.00 | 0.00 | 0.00 | 65 | 1022.7 |
| 20260903151344 | 85 | 236 | 1.0 | 5.0 | 0.00 | 0.00 | 0.00 | 66 | 1022.6 |
| 20260903151339 | 85 | 236 | 1.0 | 5.0 | 0.00 | 0.00 | 0.00 | 66 | 1022.6 |
| 20260903151325 | 85 | 236 | 1.0 | 5.0 | 0.00 | 0.00 | 0.00 | 66 | 1022.6 |
| 20260903151302 | 85 | 236 | 1.0 | 5.0 | 0.00 | 0.00 | 0.00 | 67 | 1022.6 |
| 20260903150919 | 85 | 236 | 1.0 | 5.0 | 0.00 | 0.00 | 0.00 | 67 | 1022.5 |
| 20260903150812 | 85 | 236 | 1.0 | 5.0 | 0.00 | 0.00 | 0.00 | 66 | 1022.5 |
| 20260903150707 | 85 | 209 | 1.0 | 4.0 | 0.00 | 0.00 | 0.00 | 67 | 1022.5 |
| 20260903150637 | 85 | 344 | 1.0 | 3.0 | 0.00 | 0.00 | 0.00 | 67 | 1022.5 |
| 20260903150628 | 85 | 344 | 1.0 | 3.0 | 0.00 | 0.00 | 0.00 | 67 | 1022.5 |
| 20260903150404 | 85 | 344 | 1.0 | 3.0 | 0.00 | 0.00 | 0.00 | 66 | 1022.5 |
| 20260903150333 | 85 | 344 | 1.0 | 3.0 | 0.00 | 0.00 | 0.00 | 65 | 1022.6 |
| 20260903150324 | 85 | 344 | 1.0 | 3.0 | 0.00 | 0.00 | 0.00 | 66 | 1022.5 |
| 20260903150100 | 85 | 309 | 1.0 | 3.0 | 0.00 | 0.00 | 0.00 | 68 | 1022.5 |
| 20260903150001 | 85 | 309 | 1.0 | 3.0 | 0.00 | 0.00 | 0.00 | 68 | 1022.5 |
| 20260903145858 | 85 | 313 | 1.0 | 3.0 | 0.00 | 0.00 | 0.00 | 66 | 1022.5 |
| 20260903145757 | 85 | 313 | 1.0 | 3.0 | 0.00 | 0.00 | 0.00 | 65 | 1022.5 |
| 20260903145658 | 85 | 313 | 1.0 | 3.0 | 0.00 | 0.00 | 0.00 | 65 | 1022.5 |
| 20260903145555 | 85 | 310 | 1.0 | 3.0 | 0.00 | 0.00 | 0.00 | 68 | 1022.5 |
| 20260903145454 | 85 | 278 | 1.0 | 3.0 | 0.00 | 0.00 | 0.00 | 68 | 1022.4 |
| 20260903145353 | 85 | 243 | 1.0 | 4.0 | 0.00 | 0.00 | 0.00 | 68 | 1022.5 |
| 20260903145250 | 85 | 243 | 1.0 | 4.0 | 0.00 | 0.00 | 0.00 | 68 | 1022.5 |
| 20260903145140 | 85 | 243 | 1.0 | 4.0 | 0.00 | 0.00 | 0.00 | 67 | 1022.5 |
| 20260903145041 | 85 | 244 | 1.0 | 4.0 | 0.00 | 0.00 | 0.00 | 68 | 1022.4 |
| 20260903144940 | 85 | 244 | 1.0 | 4.0 | 0.00 | 0.00 | 0.00 | 67 | 1022.5 |
| 20260903144843 | 85 | 244 | 1.0 | 4.0 | 0.00 | 0.00 | 0.00 | 67 | 1022.4 |
| 20260903144737 | 85 | 244 | 1.0 | 4.0 | 0.00 | 0.00 | 0.00 | 67 | 1022.4 |
| 20260903144636 | 85 | 244 | 1.0 | 4.0 | 0.00 | 0.00 | 0.00 | 67 | 1022.4 |
| 20260903144540 | 84 | 249 | 2.0 | 6.0 | 0.00 | 0.00 | 0.00 | 65 | 1022.4 |
| 20260903144535 | 84 | 251 | 2.0 | 6.0 | 0.00 | 0.00 | 0.00 | 65 | 1022.4 |
| 20260903144516 | 85 | 244 | 2.0 | 6.0 | 0.00 | 0.00 | 0.00 | 65 | 1022.4 |
| 20260903144209 | 84 | 250 | 2.0 | 6.0 | 0.00 | 0.00 | 0.00 | 67 | 1022.4 |
| 20260903144156 | 84 | 250 | 2.0 | 6.0 | 0.00 | 0.00 | 0.00 | 66 | 1022.4 |
| 20260903144004 | 84 | 255 | 1.0 | 6.0 | 0.00 | 0.00 | 0.00 | 65 | 1022.4 |
| 20260903143950 | 84 | 250 | 1.0 | 6.0 | 0.00 | 0.00 | 0.00 | 66 | 1022.4 |
| 20260903143725 | 84 | 255 | 1.0 | 6.0 | 0.00 | 0.00 | 0.00 | 65 | 1022.4 |
| 20260903143639 | 84 | 213 | 1.0 | 4.0 | 0.00 | 0.00 | 0.00 | 64 | 1022.3 |
| 20260903143633 | 84 | 219 | 1.0 | 3.0 | 0.00 | 0.00 | 0.00 | 65 | 1022.3 |
| 20260903143620 | 84 | 286 | 1.0 | 6.0 | 0.00 | 0.00 | 0.00 | 65 | 1022.3 |
| 20260903143558 | 84 | 219 | 1.0 | 4.0 | 0.00 | 0.00 | 0.00 | 65 | 1022.3 |
| 20260903143215 | 84 | 219 | 1.0 | 3.0 | 0.00 | 0.00 | 0.00 | 67 | 1022.3 |
| 20260903143114 | 84 | 219 | 1.0 | 3.0 | 0.00 | 0.00 | 0.00 | 67 | 1022.3 |
| 20260903143012 | 84 | 288 | 1.0 | 3.0 | 0.00 | 0.00 | 0.00 | 66 | 1022.4 |
| 20260903142914 | 84 | 288 | 2.0 | 3.0 | 0.00 | 0.00 | 0.00 | 65 | 1022.2 |
| 20260903142810 | 84 | 288 | 2.0 | 4.0 | 0.00 | 0.00 | 0.00 | 65 | 1022.3 |
| 20260903142753 | 84 | 309 | 2.0 | 4.0 | 0.00 | 0.00 | 0.00 | 67 | 1022.2 |
| 20260903142747 | 84 | 288 | 2.0 | 4.0 | 0.00 | 0.00 | 0.00 | 66 | 1022.2 |
| 20260903142735 | 84 | 288 | 2.0 | 4.0 | 0.00 | 0.00 | 0.00 | 67 | 1022.2 |
| 20260903142559 | 84 | 287 | 2.0 | 4.0 | 0.00 | 0.00 | 0.00 | 67 | 1022.2 |
| 20260903142557 | 84 | 317 | 2.0 | 4.0 | 0.00 | 0.00 | 0.00 | 66 | 1022.2 |
| 20260903142540 | 84 | 287 | 2.0 | 4.0 | 0.00 | 0.00 | 0.00 | 66 | 1022.3 |
| 20260903142355 | 84 | 284 | 2.0 | 4.0 | 0.00 | 0.00 | 0.00 | 66 | 1022.2 |
| 20260903142113 | 84 | 271 | 2.0 | 4.0 | 0.00 | 0.00 | 0.00 | 67 | 1022.2 |
| 20260903142057 | 84 | 317 | 2.0 | 4.0 | 0.00 | 0.00 | 0.00 | 65 | 1022.2 |
| 20260903142034 | 84 | 317 | 2.0 | 4.0 | 0.00 | 0.00 | 0.00 | 67 | 1022.2 |
| 20260903141650 | 84 | 288 | 2.0 | 4.0 | 0.00 | 0.00 | 0.00 | 66 | 1022.2 |
| 20260903141548 | 84 | 332 | 1.0 | 4.0 | 0.00 | 0.00 | 0.00 | 66 | 1022.2 |
| 20260903141448 | 84 | 332 | 1.0 | 4.0 | 0.00 | 0.00 | 0.00 | 66 | 1022.2 |
| 20260903141344 | 84 | 332 | 1.0 | 4.0 | 0.00 | 0.00 | 0.00 | 66 | 1022.3 |
| 20260903141324 | 83 | 332 | 1.0 | 4.0 | 0.00 | 0.00 | 0.00 | 66 | 1022.3 |
| 20260903141313 | 84 | 332 | 1.0 | 4.0 | 0.00 | 0.00 | 0.00 | 66 | 1022.3 |
| 20260903141040 | 83 | 336 | 1.0 | 4.0 | 0.00 | 0.00 | 0.00 | 66 | 1022.3 |
| 20260903140936 | 83 | 336 | 1.0 | 4.0 | 0.00 | 0.00 | 0.00 | 69 | 1022.3 |
| 20260903140837 | 83 | 254 | 1.0 | 4.0 | 0.00 | 0.00 | 0.00 | 68 | 1022.3 |
| 20260903140736 | 83 | 254 | 1.0 | 4.0 | 0.00 | 0.00 | 0.00 | 69 | 1022.4 |
| 20260903140637 | 83 | 254 | 1.0 | 4.0 | 0.00 | 0.00 | 0.00 | 70 | 1022.3 |
| 20260903140530 | 83 | 254 | 1.0 | 4.0 | 0.00 | 0.00 | 0.00 | 68 | 1022.3 |
| 20260903140431 | 83 | 254 | 1.0 | 4.0 | 0.00 | 0.00 | 0.00 | 69 | 1022.4 |
| 20260903140411 | 83 | 250 | 1.0 | 4.0 | 0.00 | 0.00 | 0.00 | 71 | 1022.3 |
| 20260903140355 | 83 | 250 | 1.0 | 4.0 | 0.00 | 0.00 | 0.00 | 69 | 1022.4 |
| 20260903140127 | 83 | 205 | 1.0 | 4.0 | 0.00 | 0.00 | 0.00 | 70 | 1022.3 |
| 20260903140022 | 83 | 205 | 1.0 | 4.0 | 0.00 | 0.00 | 0.00 | 70 | 1022.4 |
| 20260903135920 | 83 | 205 | 1.0 | 4.0 | 0.00 | 0.00 | 0.00 | 70 | 1022.3 |
| 20260903135823 | 83 | 205 | 1.0 | 4.0 | 0.00 | 0.00 | 0.00 | 70 | 1022.3 |
| 20260903135721 | 83 | 205 | 1.0 | 4.0 | 0.00 | 0.00 | 0.00 | 70 | 1022.3 |
| 20260903135622 | 83 | 205 | 1.0 | 4.0 | 0.00 | 0.00 | 0.00 | 70 | 1022.4 |
| 20260903135515 | 83 | 205 | 1.0 | 4.0 | 0.00 | 0.00 | 0.00 | 69 | 1022.4 |
| 20260903135444 | 82 | 205 | 0.0 | 4.0 | 0.00 | 0.00 | 0.00 | 69 | 1022.3 |
| 20260903135435 | 82 | 205 | 1.0 | 4.0 | 0.00 | 0.00 | 0.00 | 69 | 1022.4 |
| 20260903135249 | 82 | 203 | 0.0 | 3.0 | 0.00 | 0.00 | 0.00 | 69 | 1022.2 |
| 20260903135238 | 82 | 205 | 0.0 | 4.0 | 0.00 | 0.00 | 0.00 | 69 | 1022.4 |
| 20260903135006 | 82 | 211 | 0.0 | 1.0 | 0.00 | 0.00 | 0.00 | 70 | 1022.4 |
| 20260903134905 | 82 | 223 | 0.0 | 0.0 | 0.00 | 0.00 | 0.00 | 69 | 1022.3 |
| 20260903134804 | 82 | 223 | 0.0 | 0.0 | 0.00 | 0.00 | 0.00 | 69 | 1022.3 |
| 20260903134703 | 82 | 225 | 0.0 | 0.0 | 0.00 | 0.00 | 0.00 | 69 | 1022.4 |
| 20260903134602 | 82 | 225 | 0.0 | 0.0 | 0.00 | 0.00 | 0.00 | 69 | 1022.3 |
| 20260903134459 | 82 | 225 | 0.0 | 0.0 | 0.00 | 0.00 | 0.00 | 70 | 1022.3 |
| 20260903134358 | 82 | 225 | 0.0 | 0.0 | 0.00 | 0.00 | 0.00 | 69 | 1022.4 |
| 20260903134300 | 82 | 225 | 0.0 | 2.0 | 0.00 | 0.00 | 0.00 | 70 | 1022.3 |
| 20260903134156 | 82 | 211 | 0.0 | 2.0 | 0.00 | 0.00 | 0.00 | 71 | 1022.3 |
| 20260903134055 | 81 | 211 | 0.0 | 2.0 | 0.00 | 0.00 | 0.00 | 70 | 1022.4 |
| 20260903133954 | 81 | 211 | 1.0 | 2.0 | 0.00 | 0.00 | 0.00 | 70 | 1022.4 |
| 20260903133854 | 81 | 211 | 1.0 | 2.0 | 0.00 | 0.00 | 0.00 | 70 | 1022.3 |
| 20260903133756 | 81 | 211 | 1.0 | 3.0 | 0.00 | 0.00 | 0.00 | 70 | 1022.3 |
| 20260903133651 | 81 | 211 | 1.0 | 3.0 | 0.00 | 0.00 | 0.00 | 70 | 1022.3 |
| 20260903133555 | 81 | 211 | 1.0 | 3.0 | 0.00 | 0.00 | 0.00 | 71 | 1022.4 |
| 20260903133444 | 81 | 211 | 2.0 | 3.0 | 0.00 | 0.00 | 0.00 | 70 | 1022.3 |
| 20260903133416 | 81 | 211 | 2.0 | 4.0 | 0.00 | 0.00 | 0.00 | 70 | 1022.3 |
| 20260903133407 | 81 | 211 | 2.0 | 4.0 | 0.00 | 0.00 | 0.00 | 70 | 1022.4 |
| 20260903133145 | 81 | 211 | 2.0 | 4.0 | 0.00 | 0.00 | 0.00 | 70 | 1022.5 |
| 20260903133038 | 81 | 211 | 2.0 | 4.0 | 0.00 | 0.00 | 0.00 | 71 | 1022.4 |
| 20260903132937 | 81 | 211 | 2.0 | 4.0 | 0.00 | 0.00 | 0.00 | 71 | 1022.4 |
| 20260903132836 | 81 | 211 | 2.0 | 4.0 | 0.00 | 0.00 | 0.00 | 71 | 1022.5 |
| 20260903132737 | 81 | 211 | 2.0 | 4.0 | 0.00 | 0.00 | 0.00 | 71 | 1022.4 |
| 20260903132646 | 81 | 211 | 2.0 | 4.0 | 0.00 | 0.00 | 0.00 | 71 | 1022.4 |
| 20260903132636 | 81 | 211 | 2.0 | 4.0 | 0.00 | 0.00 | 0.00 | 71 | 1022.4 |
| 20260903132629 | 81 | 211 | 2.0 | 3.0 | 0.00 | 0.00 | 0.00 | 71 | 1022.4 |
| 20260903132610 | 81 | 211 | 2.0 | 4.0 | 0.00 | 0.00 | 0.00 | 71 | 1022.4 |
| 20260903132229 | 81 | 211 | 2.0 | 3.0 | 0.00 | 0.00 | 0.00 | 71 | 1022.5 |
| 20260903132126 | 80 | 211 | 2.0 | 3.0 | 0.00 | 0.00 | 0.00 | 71 | 1022.4 |
| 20260903132025 | 80 | 211 | 2.0 | 3.0 | 0.00 | 0.00 | 0.00 | 71 | 1022.5 |
| 20260903131929 | 80 | 211 | 2.0 | 3.0 | 0.00 | 0.00 | 0.00 | 71 | 1022.4 |
| 20260903131918 | 80 | 211 | 2.0 | 3.0 | 0.00 | 0.00 | 0.00 | 71 | 1022.4 |
| 20260903131911 | 80 | 211 | 2.0 | 3.0 | 0.00 | 0.00 | 0.00 | 71 | 1022.4 |
| 20260903131854 | 80 | 211 | 2.0 | 3.0 | 0.00 | 0.00 | 0.00 | 71 | 1022.5 |
| 20260903131517 | 80 | 211 | 2.0 | 3.0 | 0.00 | 0.00 | 0.00 | 71 | 1022.5 |
| 20260903131416 | 80 | 211 | 2.0 | 3.0 | 0.00 | 0.00 | 0.00 | 71 | 1022.5 |
| 20260903131316 | 80 | 211 | 2.0 | 3.0 | 0.00 | 0.00 | 0.00 | 71 | 1022.5 |
| 20260903131217 | 80 | 211 | 2.0 | 3.0 | 0.00 | 0.00 | 0.00 | 71 | 1022.5 |
| 20260903131153 | 80 | 211 | 2.0 | 3.0 | 0.00 | 0.00 | 0.00 | 71 | 1022.5 |
| 20260903131143 | 80 | 211 | 2.0 | 3.0 | 0.00 | 0.00 | 0.00 | 71 | 1022.5 |
| 20260903130919 | 80 | 211 | 2.0 | 3.0 | 0.00 | 0.00 | 0.00 | 71 | 1022.5 |
| 20260903130817 | 80 | 211 | 2.0 | 3.0 | 0.00 | 0.00 | 0.00 | 71 | 1022.5 |
| 20260903130720 | 80 | 211 | 2.0 | 3.0 | 0.00 | 0.00 | 0.00 | 71 | 1022.5 |
| 20260903130616 | 80 | 211 | 2.0 | 3.0 | 0.00 | 0.00 | 0.00 | 71 | 1022.5 |
| 20260903130550 | 80 | 211 | 2.0 | 3.0 | 0.00 | 0.00 | 0.00 | 71 | 1022.5 |
| 20260903130538 | 80 | 211 | 2.0 | 3.0 | 0.00 | 0.00 | 0.00 | 71 | 1022.5 |
| 20260903130313 | 80 | 211 | 2.0 | 3.0 | 0.00 | 0.00 | 0.00 | 71 | 1022.5 |
| 20260903130212 | 80 | 211 | 2.0 | 3.0 | 0.00 | 0.00 | 0.00 | 71 | 1022.5 |
| 20260903130112 | 80 | 211 | 2.0 | 3.0 | 0.00 | 0.00 | 0.00 | 71 | 1022.5 |
| 20260903130038 | 80 | 211 | 2.0 | 3.0 | 0.00 | 0.00 | 0.00 | 71 | 1022.5 |
| 20260903125939 | 80 | 211 | 2.0 | 3.0 | 0.00 | 0.00 | 0.00 | 71 | 1022.5 |
| 20260903125929 | 80 | 211 | 2.0 | 3.0 | 0.00 | 0.00 | 0.00 | 71 | 1022.5 |
| 20260903125742 | 80 | 209 | 2.0 | 3.0 | 0.00 | 0.00 | 0.00 | 71 | 1022.5 |
| 20260903125738 | 80 | 209 | 2.0 | 3.0 | 0.00 | 0.00 | 0.00 | 71 | 1022.4 |
| 20260903125729 | 80 | 211 | 2.0 | 3.0 | 0.00 | 0.00 | 0.00 | 71 | 1022.5 |
| 20260903125557 | 80 | 209 | 2.0 | 3.0 | 0.00 | 0.00 | 0.00 | 71 | 1022.4 |
| 20260903125552 | 80 | 209 | 2.0 | 3.0 | 0.00 | 0.00 | 0.00 | 71 | 1022.5 |
| 20260903125538 | 80 | 209 | 2.0 | 3.0 | 0.00 | 0.00 | 0.00 | 71 | 1022.4 |
| 20260903125349 | 80 | 209 | 2.0 | 3.0 | 0.00 | 0.00 | 0.00 | 71 | 1022.5 |
| 20260903125002 | 80 | 209 | 2.0 | 4.0 | 0.00 | 0.00 | 0.00 | 71 | 1022.4 |
| 20260903124904 | 80 | 209 | 2.0 | 4.0 | 0.00 | 0.00 | 0.00 | 71 | 1022.4 |
| 20260903124803 | 80 | 209 | 2.0 | 4.0 | 0.00 | 0.00 | 0.00 | 71 | 1022.4 |
| 20260903124704 | 80 | 209 | 2.0 | 4.0 | 0.00 | 0.00 | 0.00 | 71 | 1022.3 |
| 20260903124603 | 80 | 209 | 2.0 | 4.0 | 0.00 | 0.00 | 0.00 | 71 | 1022.4 |
| 20260903124503 | 80 | 209 | 2.0 | 4.0 | 0.00 | 0.00 | 0.00 | 71 | 1022.3 |
| 20260903124400 | 80 | 209 | 2.0 | 4.0 | 0.00 | 0.00 | 0.00 | 71 | 1022.4 |
| 20260903124301 | 80 | 209 | 2.0 | 4.0 | 0.00 | 0.00 | 0.00 | 71 | 1022.4 |
| 20260903124158 | 80 | 209 | 2.0 | 4.0 | 0.00 | 0.00 | 0.00 | 71 | 1022.4 |
| 20260903124130 | 80 | 209 | 2.0 | 3.0 | 0.00 | 0.00 | 0.00 | 71 | 1022.4 |
| 20260903124118 | 80 | 209 | 2.0 | 4.0 | 0.00 | 0.00 | 0.00 | 71 | 1022.4 |
| 20260903123925 | 80 | 209 | 2.0 | 3.0 | 0.00 | 0.00 | 0.00 | 71 | 1022.4 |
| 20260903123910 | 80 | 209 | 2.0 | 3.0 | 0.00 | 0.00 | 0.00 | 71 | 1022.4 |
| 20260903123729 | 80 | 209 | 2.0 | 3.0 | 0.00 | 0.00 | 0.00 | 71 | 1022.4 |
| 20260903123717 | 80 | 209 | 2.0 | 3.0 | 0.00 | 0.00 | 0.00 | 71 | 1022.4 |
| 20260903123446 | 80 | 209 | 2.0 | 3.0 | 0.00 | 0.00 | 0.00 | 71 | 1022.4 |
| 20260903123346 | 80 | 209 | 2.0 | 3.0 | 0.00 | 0.00 | 0.00 | 71 | 1022.3 |
| 20260903123248 | 80 | 209 | 2.0 | 3.0 | 0.00 | 0.00 | 0.00 | 71 | 1022.4 |
| 20260903123146 | 80 | 209 | 2.0 | 3.0 | 0.00 | 0.00 | 0.00 | 71 | 1022.4 |
| 20260903123046 | 80 | 209 | 2.0 | 3.0 | 0.00 | 0.00 | 0.00 | 71 | 1022.4 |
| 20260903122943 | 80 | 209 | 2.0 | 3.0 | 0.00 | 0.00 | 0.00 | 71 | 1022.3 |
| 20260903122840 | 80 | 209 | 2.0 | 3.0 | 0.00 | 0.00 | 0.00 | 71 | 1022.3 |
| 20260903122740 | 79 | 209 | 2.0 | 3.0 | 0.00 | 0.00 | 0.00 | 71 | 1022.4 |
| 20260903122638 | 79 | 209 | 2.0 | 3.0 | 0.00 | 0.00 | 0.00 | 71 | 1022.4 |
| 20260903122538 | 79 | 209 | 2.0 | 3.0 | 0.00 | 0.00 | 0.00 | 71 | 1022.3 |
| 20260903122436 | 79 | 209 | 2.0 | 3.0 | 0.00 | 0.00 | 0.00 | 72 | 1022.3 |
| 20260903122336 | 79 | 209 | 2.0 | 3.0 | 0.00 | 0.00 | 0.00 | 71 | 1022.3 |
| 20260903122236 | 79 | 209 | 2.0 | 3.0 | 0.00 | 0.00 | 0.00 | 72 | 1022.3 |
| 20260903122137 | 79 | 209 | 2.0 | 3.0 | 0.00 | 0.00 | 0.00 | 72 | 1022.3 |
| 20260903122036 | 79 | 209 | 2.0 | 3.0 | 0.00 | 0.00 | 0.00 | 71 | 1022.4 |
| 20260903121935 | 79 | 209 | 2.0 | 3.0 | 0.00 | 0.00 | 0.00 | 71 | 1022.3 |
| 20260903121835 | 79 | 209 | 2.0 | 3.0 | 0.00 | 0.00 | 0.00 | 72 | 1022.4 |
| 20260903121736 | 79 | 209 | 2.0 | 3.0 | 0.00 | 0.00 | 0.00 | 72 | 1022.4 |
| 20260903121709 | 79 | 209 | 2.0 | 3.0 | 0.00 | 0.00 | 0.00 | 72 | 1022.4 |
| 20260903121659 | 79 | 209 | 2.0 | 3.0 | 0.00 | 0.00 | 0.00 | 72 | 1022.3 |
| 20260903121435 | 79 | 209 | 2.0 | 3.0 | 0.00 | 0.00 | 0.00 | 71 | 1022.3 |
| 20260903121331 | 79 | 209 | 2.0 | 3.0 | 0.00 | 0.00 | 0.00 | 71 | 1022.3 |
| 20260903121237 | 79 | 209 | 2.0 | 3.0 | 0.00 | 0.00 | 0.00 | 71 | 1022.3 |
| 20260903121133 | 79 | 204 | 2.0 | 3.0 | 0.00 | 0.00 | 0.00 | 72 | 1022.3 |
| 20260903121032 | 79 | 204 | 2.0 | 3.0 | 0.00 | 0.00 | 0.00 | 72 | 1022.3 |
| 20260903120932 | 79 | 204 | 2.0 | 3.0 | 0.00 | 0.00 | 0.00 | 71 | 1022.2 |
| 20260903120904 | 79 | 199 | 2.0 | 3.0 | 0.00 | 0.00 | 0.00 | 71 | 1022.2 |
| 20260903120851 | 79 | 199 | 2.0 | 3.0 | 0.00 | 0.00 | 0.00 | 71 | 1022.2 |
| 20260903120628 | 79 | 199 | 2.0 | 3.0 | 0.00 | 0.00 | 0.00 | 71 | 1022.2 |
| 20260903120528 | 79 | 197 | 2.0 | 3.0 | 0.00 | 0.00 | 0.00 | 71 | 1022.2 |
| 20260903120501 | 79 | 196 | 2.0 | 4.0 | 0.00 | 0.00 | 0.00 | 71 | 1022.2 |
| 20260903120451 | 79 | 197 | 2.0 | 3.0 | 0.00 | 0.00 | 0.00 | 71 | 1022.2 |
| 20260903120230 | 79 | 196 | 2.0 | 4.0 | 0.00 | 0.00 | 0.00 | 71 | 1022.3 |
| 20260903120127 | 79 | 196 | 2.0 | 4.0 | 0.00 | 0.00 | 0.00 | 71 | 1022.2 |
| 20260903120041 | 79 | 196 | 2.0 | 4.0 | 0.00 | 0.00 | 0.00 | 71 | 1022.2 |
| 20260903120030 | 79 | 196 | 2.0 | 4.0 | 0.00 | 0.00 | 0.00 | 71 | 1022.2 |
| 20260903120005 | 79 | 196 | 2.0 | 4.0 | 0.00 | 0.00 | 0.00 | 71 | 1022.2 |
| 20260903115837 | 79 | 196 | 2.0 | 4.0 | 0.00 | 0.00 | 0.00 | 71 | 1022.2 |
| 20260903115815 | 79 | 196 | 2.0 | 4.0 | 0.00 | 0.00 | 0.00 | 71 | 1022.2 |
| 20260903115653 | 79 | 196 | 2.0 | 4.0 | 0.00 | 0.00 | 0.00 | 71 | 1022.2 |
| 20260903115429 | 79 | 196 | 2.0 | 4.0 | 0.00 | 0.00 | 0.00 | 71 | 1022.2 |
| 20260903115324 | 79 | 193 | 2.0 | 3.0 | 0.00 | 0.00 | 0.00 | 71 | 1022.2 |
| 20260903115226 | 79 | 193 | 2.0 | 3.0 | 0.00 | 0.00 | 0.00 | 71 | 1022.2 |
| 20260903115126 | 79 | 193 | 2.0 | 3.0 | 0.00 | 0.00 | 0.00 | 71 | 1022.2 |
| 20260903115023 | 79 | 193 | 2.0 | 3.0 | 0.00 | 0.00 | 0.00 | 71 | 1022.1 |
| 20260903114923 | 79 | 193 | 2.0 | 3.0 | 0.00 | 0.00 | 0.00 | 71 | 1022.2 |
| 20260903114824 | 79 | 193 | 2.0 | 3.0 | 0.00 | 0.00 | 0.00 | 71 | 1022.1 |
| 20260903114724 | 79 | 192 | 1.0 | 3.0 | 0.00 | 0.00 | 0.00 | 71 | 1022.1 |
| 20260903114621 | 79 | 192 | 1.0 | 3.0 | 0.00 | 0.00 | 0.00 | 71 | 1022.1 |
| 20260903114521 | 79 | 192 | 1.0 | 3.0 | 0.00 | 0.00 | 0.00 | 71 | 1022.1 |
| 20260903114420 | 79 | 192 | 1.0 | 3.0 | 0.00 | 0.00 | 0.00 | 71 | 1022.1 |
| 20260903114355 | 79 | 192 | 1.0 | 3.0 | 0.00 | 0.00 | 0.00 | 71 | 1022.0 |
| 20260903114344 | 79 | 192 | 1.0 | 3.0 | 0.00 | 0.00 | 0.00 | 71 | 1022.1 |
| 20260903114121 | 79 | 192 | 1.0 | 2.0 | 0.00 | 0.00 | 0.00 | 71 | 1022.0 |
| 20260903114019 | 79 | 192 | 1.0 | 2.0 | 0.00 | 0.00 | 0.00 | 71 | 1022.1 |
| 20260903113919 | 79 | 192 | 1.0 | 2.0 | 0.00 | 0.00 | 0.00 | 71 | 1022.1 |
| 20260903113821 | 79 | 192 | 1.0 | 2.0 | 0.00 | 0.00 | 0.00 | 71 | 1022.1 |
| 20260903113720 | 79 | 192 | 1.0 | 3.0 | 0.00 | 0.00 | 0.00 | 71 | 1022.1 |
| 20260903113659 | 79 | 192 | 1.0 | 3.0 | 0.00 | 0.00 | 0.00 | 71 | 1022.0 |
| 20260903113647 | 79 | 192 | 1.0 | 3.0 | 0.00 | 0.00 | 0.00 | 71 | 1022.0 |
| 20260903113421 | 79 | 192 | 1.0 | 3.0 | 0.00 | 0.00 | 0.00 | 71 | 1022.0 |
| 20260903113320 | 79 | 192 | 1.0 | 3.0 | 0.00 | 0.00 | 0.00 | 71 | 1022.0 |
| 20260903113235 | 79 | 192 | 1.0 | 3.0 | 0.00 | 0.00 | 0.00 | 71 | 1022.0 |
| 20260903113125 | 79 | 192 | 1.0 | 3.0 | 0.00 | 0.00 | 0.00 | 71 | 1022.0 |
| 20260903113041 | 79 | 192 | 1.0 | 3.0 | 0.00 | 0.00 | 0.00 | 71 | 1022.0 |
| 20260903112921 | 79 | 192 | 1.0 | 3.0 | 0.00 | 0.00 | 0.00 | 71 | 1022.0 |
| 20260903112820 | 79 | 192 | 1.0 | 3.0 | 0.00 | 0.00 | 0.00 | 71 | 1021.9 |
| 20260903112804 | 79 | 191 | 0.0 | 2.0 | 0.00 | 0.00 | 0.00 | 71 | 1021.9 |
| 20260903112744 | 79 | 191 | 0.0 | 2.0 | 0.00 | 0.00 | 0.00 | 71 | 1022.0 |
| 20260903112521 | 79 | 192 | 0.0 | 3.0 | 0.00 | 0.00 | 0.00 | 71 | 1022.0 |
| 20260903112422 | 79 | 192 | 0.0 | 3.0 | 0.00 | 0.00 | 0.00 | 71 | 1021.9 |
| 20260903112319 | 79 | 192 | 0.0 | 3.0 | 0.00 | 0.00 | 0.00 | 71 | 1021.9 |
| 20260903112233 | 79 | 192 | 0.0 | 3.0 | 0.00 | 0.00 | 0.00 | 71 | 1022.0 |
| 20260903112123 | 79 | 192 | 1.0 | 3.0 | 0.00 | 0.00 | 0.00 | 71 | 1021.9 |
| 20260903112022 | 79 | 192 | 0.0 | 3.0 | 0.00 | 0.00 | 0.00 | 71 | 1021.9 |
| 20260903111920 | 79 | 192 | 1.0 | 3.0 | 0.00 | 0.00 | 0.00 | 71 | 1021.9 |
| 20260903111818 | 79 | 192 | 1.0 | 3.0 | 0.00 | 0.00 | 0.00 | 71 | 1021.9 |
| 20260903111717 | 79 | 192 | 0.0 | 3.0 | 0.00 | 0.00 | 0.00 | 71 | 1021.9 |
| 20260903111618 | 79 | 192 | 0.0 | 3.0 | 0.00 | 0.00 | 0.00 | 71 | 1021.9 |
| 20260903111518 | 79 | 203 | 1.0 | 3.0 | 0.00 | 0.00 | 0.00 | 71 | 1021.9 |
| 20260903111425 | 79 | 203 | 1.0 | 3.0 | 0.00 | 0.00 | 0.00 | 71 | 1021.9 |
| 20260903111313 | 79 | 203 | 1.0 | 3.0 | 0.00 | 0.00 | 0.00 | 71 | 1021.9 |
| 20260903111216 | 79 | 203 | 1.0 | 3.0 | 0.00 | 0.00 | 0.00 | 71 | 1021.8 |
| 20260903111118 | 79 | 204 | 0.0 | 3.0 | 0.00 | 0.00 | 0.00 | 71 | 1021.8 |
| 20260903111021 | 79 | 178 | 1.0 | 3.0 | 0.00 | 0.00 | 0.00 | 71 | 1021.8 |
| 20260903110911 | 79 | 178 | 1.0 | 3.0 | 0.00 | 0.00 | 0.00 | 71 | 1021.8 |
| 20260903110813 | 79 | 178 | 1.0 | 3.0 | 0.00 | 0.00 | 0.00 | 71 | 1021.8 |
| 20260903110712 | 79 | 178 | 1.0 | 3.0 | 0.00 | 0.00 | 0.00 | 71 | 1021.7 |
| 20260903110648 | 79 | 178 | 1.0 | 3.0 | 0.00 | 0.00 | 0.00 | 71 | 1021.8 |
| 20260903110633 | 79 | 178 | 1.0 | 3.0 | 0.00 | 0.00 | 0.00 | 71 | 1021.8 |
| 20260903110411 | 79 | 217 | 1.0 | 4.0 | 0.00 | 0.00 | 0.00 | 71 | 1021.8 |
| 20260903110313 | 79 | 217 | 1.0 | 4.0 | 0.00 | 0.00 | 0.00 | 71 | 1021.8 |
| 20260903110212 | 79 | 217 | 1.0 | 4.0 | 0.00 | 0.00 | 0.00 | 71 | 1021.7 |
| 20260903110113 | 79 | 217 | 1.0 | 4.0 | 0.00 | 0.00 | 0.00 | 71 | 1021.8 |
| 20260903110044 | 79 | 217 | 1.0 | 4.0 | 0.00 | 0.00 | 0.00 | 71 | 1021.8 |
| 20260903110034 | 79 | 217 | 1.0 | 4.0 | 0.00 | 0.00 | 0.00 | 71 | 1021.8 |
| 20260903105811 | 79 | 217 | 1.0 | 4.0 | 0.00 | 0.00 | 0.00 | 71 | 1021.7 |
| 20260903105711 | 79 | 217 | 1.0 | 4.0 | 0.00 | 0.00 | 0.00 | 72 | 1021.7 |
| 20260903105613 | 79 | 223 | 1.0 | 4.0 | 0.00 | 0.00 | 0.00 | 71 | 1021.7 |
| 20260903105512 | 79 | 225 | 1.0 | 4.0 | 0.00 | 0.00 | 0.00 | 72 | 1021.7 |
| 20260903105412 | 79 | 267 | 1.0 | 4.0 | 0.00 | 0.00 | 0.00 | 72 | 1021.5 |
| 20260903105311 | 78 | 234 | 1.0 | 4.0 | 0.00 | 0.00 | 0.00 | 72 | 1021.5 |
| 20260903105209 | 78 | 142 | 1.0 | 4.0 | 0.00 | 0.00 | 0.00 | 72 | 1021.7 |
| 20260903105112 | 78 | 141 | 1.0 | 4.0 | 0.00 | 0.00 | 0.00 | 72 | 1021.5 |
| 20260903105011 | 78 | 142 | 1.0 | 4.0 | 0.00 | 0.00 | 0.00 | 72 | 1021.5 |
| 20260903104914 | 78 | 162 | 1.0 | 4.0 | 0.00 | 0.00 | 0.00 | 72 | 1021.7 |
| 20260903104907 | 78 | 184 | 1.0 | 3.0 | 0.00 | 0.00 | 0.00 | 73 | 1021.5 |
| 20260903104903 | 78 | 138 | 1.0 | 4.0 | 0.00 | 0.00 | 0.00 | 72 | 1021.5 |
| 20260903104843 | 78 | 201 | 1.0 | 4.0 | 0.00 | 0.00 | 0.00 | 73 | 1021.5 |
| 20260903104657 | 78 | 138 | 1.0 | 4.0 | 0.00 | 0.00 | 0.00 | 72 | 1021.7 |
| 20260903104541 | 78 | 113 | 1.0 | 3.0 | 0.00 | 0.00 | 0.00 | 73 | 1021.5 |
| 20260903104537 | 78 | 79 | 1.0 | 3.0 | 0.00 | 0.00 | 0.00 | 73 | 1021.4 |
| 20260903104520 | 78 | 180 | 1.0 | 4.0 | 0.00 | 0.00 | 0.00 | 73 | 1021.5 |
| 20260903104503 | 78 | 94 | 1.0 | 4.0 | 0.00 | 0.00 | 0.00 | 73 | 1021.5 |
| 20260903103956 | 78 | 74 | 1.0 | 3.0 | 0.00 | 0.00 | 0.00 | 73 | 1021.4 |
| 20260903103857 | 78 | 74 | 1.0 | 3.0 | 0.00 | 0.00 | 0.00 | 73 | 1021.4 |
| 20260903103755 | 78 | 207 | 1.0 | 3.0 | 0.00 | 0.00 | 0.00 | 73 | 1021.4 |
| 20260903103649 | 78 | 207 | 1.0 | 3.0 | 0.00 | 0.00 | 0.00 | 73 | 1021.4 |
| 20260903103551 | 78 | 269 | 1.0 | 3.0 | 0.00 | 0.00 | 0.00 | 73 | 1021.5 |
| 20260903103450 | 78 | 269 | 1.0 | 3.0 | 0.00 | 0.00 | 0.00 | 73 | 1021.4 |
| 20260903103347 | 78 | 148 | 1.0 | 3.0 | 0.00 | 0.00 | 0.00 | 73 | 1021.3 |
| 20260903103247 | 78 | 148 | 1.0 | 3.0 | 0.00 | 0.00 | 0.00 | 73 | 1021.4 |
| 20260903103151 | 78 | 148 | 0.0 | 3.0 | 0.00 | 0.00 | 0.00 | 73 | 1021.3 |
| 20260903103122 | 78 | 153 | 0.0 | 3.0 | 0.00 | 0.00 | 0.00 | 73 | 1021.3 |
| 20260903103111 | 78 | 154 | 0.0 | 3.0 | 0.00 | 0.00 | 0.00 | 73 | 1021.4 |
| 20260903102848 | 78 | 163 | 1.0 | 2.0 | 0.00 | 0.00 | 0.00 | 73 | 1021.4 |
| 20260903102748 | 79 | 163 | 1.0 | 2.0 | 0.00 | 0.00 | 0.00 | 73 | 1021.4 |
| 20260903102644 | 79 | 159 | 1.0 | 2.0 | 0.00 | 0.00 | 0.00 | 73 | 1021.4 |
| 20260903102543 | 79 | 159 | 1.0 | 2.0 | 0.00 | 0.00 | 0.00 | 73 | 1021.4 |
| 20260903102443 | 79 | 159 | 1.0 | 2.0 | 0.00 | 0.00 | 0.00 | 73 | 1021.4 |
| 20260903102339 | 79 | 159 | 1.0 | 2.0 | 0.00 | 0.00 | 0.00 | 72 | 1021.3 |
| 20260903102241 | 79 | 188 | 1.0 | 4.0 | 0.00 | 0.00 | 0.00 | 73 | 1021.3 |
| 20260903102139 | 78 | 188 | 1.0 | 4.0 | 0.00 | 0.00 | 0.00 | 73 | 1021.3 |
| 20260903102048 | 78 | 188 | 1.0 | 5.0 | 0.00 | 0.00 | 0.00 | 73 | 1021.3 |
| 20260903101938 | 78 | 179 | 1.0 | 5.0 | 0.00 | 0.00 | 0.00 | 73 | 1021.3 |
| 20260903101837 | 78 | 176 | 1.0 | 5.0 | 0.00 | 0.00 | 0.00 | 73 | 1021.3 |
| 20260903101741 | 78 | 176 | 1.0 | 5.0 | 0.00 | 0.00 | 0.00 | 73 | 1021.3 |
| 20260903101638 | 78 | 175 | 1.0 | 5.0 | 0.00 | 0.00 | 0.00 | 73 | 1021.3 |
| 20260903101537 | 78 | 258 | 1.0 | 5.0 | 0.00 | 0.00 | 0.00 | 73 | 1021.3 |
| 20260903101437 | 78 | 162 | 1.0 | 5.0 | 0.00 | 0.00 | 0.00 | 73 | 1021.3 |
| 20260903101334 | 78 | 174 | 1.0 | 5.0 | 0.00 | 0.00 | 0.00 | 73 | 1021.3 |
| 20260903101233 | 78 | 186 | 1.0 | 5.0 | 0.00 | 0.00 | 0.00 | 73 | 1021.3 |
| 20260903101133 | 78 | 199 | 1.0 | 6.0 | 0.00 | 0.00 | 0.00 | 73 | 1021.3 |
| 20260903101030 | 78 | 165 | 1.0 | 6.0 | 0.00 | 0.00 | 0.00 | 73 | 1021.3 |
| 20260903100923 | 78 | 179 | 1.0 | 6.0 | 0.00 | 0.00 | 0.00 | 73 | 1021.3 |
| 20260903100901 | 78 | 98 | 1.0 | 6.0 | 0.00 | 0.00 | 0.00 | 73 | 1021.5 |
| 20260903100849 | 78 | 182 | 1.0 | 6.0 | 0.00 | 0.00 | 0.00 | 73 | 1021.4 |
| 20260903100624 | 78 | 98 | 1.0 | 6.0 | 0.00 | 0.00 | 0.00 | 73 | 1021.4 |
| 20260903100523 | 78 | 344 | 1.0 | 6.0 | 0.00 | 0.00 | 0.00 | 73 | 1021.3 |
| 20260903100452 | 78 | 78 | 1.0 | 6.0 | 0.00 | 0.00 | 0.00 | 73 | 1021.3 |
| 20260903100439 | 78 | 78 | 1.0 | 6.0 | 0.00 | 0.00 | 0.00 | 73 | 1021.3 |
| 20260903100218 | 78 | 167 | 1.0 | 6.0 | 0.00 | 0.00 | 0.00 | 74 | 1021.3 |
| 20260903100117 | 78 | 182 | 1.0 | 6.0 | 0.00 | 0.00 | 0.00 | 74 | 1021.4 |
| 20260903100017 | 78 | 159 | 1.0 | 6.0 | 0.00 | 0.00 | 0.00 | 74 | 1021.4 |
| 20260903095917 | 78 | 159 | 1.0 | 6.0 | 0.00 | 0.00 | 0.00 | 74 | 1021.3 |
| 20260903095848 | 78 | 149 | 1.0 | 6.0 | 0.00 | 0.00 | 0.00 | 74 | 1021.4 |
| 20260903095838 | 78 | 150 | 1.0 | 6.0 | 0.00 | 0.00 | 0.00 | 74 | 1021.3 |
| 20260903095618 | 78 | 149 | 1.0 | 6.0 | 0.00 | 0.00 | 0.00 | 74 | 1021.4 |
| 20260903095553 | 78 | 149 | 1.0 | 6.0 | 0.00 | 0.00 | 0.00 | 74 | 1021.3 |
| 20260903095541 | 78 | 149 | 1.0 | 6.0 | 0.00 | 0.00 | 0.00 | 74 | 1021.4 |
| 20260903095320 | 78 | 140 | 1.0 | 5.0 | 0.00 | 0.00 | 0.00 | 74 | 1021.3 |
| 20260903095219 | 78 | 192 | 1.0 | 5.0 | 0.00 | 0.00 | 0.00 | 74 | 1021.3 |
| 20260903095118 | 78 | 227 | 1.0 | 5.0 | 0.00 | 0.00 | 0.00 | 74 | 1021.3 |
| 20260903095048 | 78 | 205 | 1.0 | 5.0 | 0.00 | 0.00 | 0.00 | 74 | 1021.3 |
| 20260903095042 | 78 | 145 | 1.0 | 4.0 | 0.00 | 0.00 | 0.00 | 74 | 1021.2 |
| 20260903095028 | 78 | 196 | 1.0 | 5.0 | 0.00 | 0.00 | 0.00 | 74 | 1021.3 |
| 20260903095007 | 78 | 205 | 1.0 | 5.0 | 0.00 | 0.00 | 0.00 | 74 | 1021.2 |
| 20260903094618 | 78 | 201 | 1.0 | 4.0 | 0.00 | 0.00 | 0.00 | 74 | 1021.3 |
| 20260903094553 | 78 | 189 | 1.0 | 4.0 | 0.00 | 0.00 | 0.00 | 74 | 1021.3 |
| 20260903094538 | 78 | 188 | 1.0 | 4.0 | 0.00 | 0.00 | 0.00 | 74 | 1021.3 |
| 20260903094320 | 78 | 202 | 1.0 | 4.0 | 0.00 | 0.00 | 0.00 | 74 | 1021.3 |
| 20260903094231 | 78 | 173 | 1.0 | 2.0 | 0.00 | 0.00 | 0.00 | 74 | 1021.3 |
| 20260903094212 | 78 | 207 | 1.0 | 4.0 | 0.00 | 0.00 | 0.00 | 74 | 1021.3 |
| 20260903094153 | 78 | 209 | 1.0 | 4.0 | 0.00 | 0.00 | 0.00 | 74 | 1021.3 |
| 20260903093917 | 78 | 144 | 1.0 | 2.0 | 0.00 | 0.00 | 0.00 | 74 | 1021.3 |
| 20260903093813 | 78 | 144 | 1.0 | 2.0 | 0.00 | 0.00 | 0.00 | 74 | 1021.3 |
| 20260903093707 | 78 | 144 | 0.0 | 2.0 | 0.00 | 0.00 | 0.00 | 74 | 1021.3 |
| 20260903093609 | 78 | 144 | 0.0 | 2.0 | 0.00 | 0.00 | 0.00 | 74 | 1021.3 |
| 20260903093509 | 78 | 143 | 1.0 | 2.0 | 0.00 | 0.00 | 0.00 | 74 | 1021.4 |
| 20260903093405 | 78 | 143 | 1.0 | 4.0 | 0.00 | 0.00 | 0.00 | 74 | 1021.4 |
| 20260903093332 | 78 | 143 | 1.0 | 4.0 | 0.00 | 0.00 | 0.00 | 74 | 1021.3 |
| 20260903093204 | 78 | 143 | 1.0 | 4.0 | 0.00 | 0.00 | 0.00 | 74 | 1021.3 |
| 20260903093100 | 78 | 143 | 1.0 | 4.0 | 0.00 | 0.00 | 0.00 | 74 | 1021.3 |
| 20260903092958 | 78 | 141 | 1.0 | 4.0 | 0.00 | 0.00 | 0.00 | 74 | 1021.3 |
| 20260903092901 | 78 | 141 | 1.0 | 4.0 | 0.00 | 0.00 | 0.00 | 74 | 1021.3 |
| 20260903092800 | 78 | 141 | 1.0 | 4.0 | 0.00 | 0.00 | 0.00 | 74 | 1021.3 |
| 20260903092656 | 78 | 155 | 1.0 | 4.0 | 0.00 | 0.00 | 0.00 | 74 | 1021.3 |
| 20260903092629 | 78 | 141 | 1.0 | 3.0 | 0.00 | 0.00 | 0.00 | 74 | 1021.2 |
| 20260903092622 | 78 | 141 | 1.0 | 3.0 | 0.00 | 0.00 | 0.00 | 74 | 1021.3 |
| 20260903092604 | 78 | 155 | 1.0 | 4.0 | 0.00 | 0.00 | 0.00 | 74 | 1021.3 |
| 20260903092540 | 78 | 169 | 1.0 | 4.0 | 0.00 | 0.00 | 0.00 | 74 | 1021.3 |
| 20260903092458 | 78 | 163 | 1.0 | 3.0 | 0.00 | 0.00 | 0.00 | 74 | 1021.3 |
| 20260903092047 | 78 | 141 | 1.0 | 4.0 | 0.00 | 0.00 | 0.00 | 74 | 1021.2 |
| 20260903092035 | 78 | 136 | 1.0 | 4.0 | 0.00 | 0.00 | 0.00 | 74 | 1021.3 |
| 20260903092019 | 78 | 142 | 1.0 | 4.0 | 0.00 | 0.00 | 0.00 | 74 | 1021.3 |
| 20260903091747 | 78 | 186 | 1.0 | 4.0 | 0.00 | 0.00 | 0.00 | 74 | 1021.3 |
| 20260903091642 | 78 | 191 | 1.0 | 4.0 | 0.00 | 0.00 | 0.00 | 74 | 1021.3 |
| 20260903091541 | 78 | 191 | 1.0 | 4.0 | 0.00 | 0.00 | 0.00 | 74 | 1021.3 |
| 20260903091454 | 78 | 198 | 1.0 | 4.0 | 0.00 | 0.00 | 0.00 | 74 | 1021.3 |
| 20260903091343 | 78 | 178 | 1.0 | 4.0 | 0.00 | 0.00 | 0.00 | 74 | 1021.3 |
| 20260903091242 | 78 | 178 | 1.0 | 4.0 | 0.00 | 0.00 | 0.00 | 74 | 1021.3 |
| 20260903091143 | 78 | 178 | 1.0 | 4.0 | 0.00 | 0.00 | 0.00 | 74 | 1021.3 |
| 20260903091041 | 78 | 177 | 1.0 | 9.0 | 0.00 | 0.00 | 0.00 | 74 | 1021.4 |
| 20260903090939 | 78 | 244 | 1.0 | 9.0 | 0.00 | 0.00 | 0.00 | 74 | 1021.3 |
| 20260903090840 | 78 | 244 | 1.0 | 9.0 | 0.00 | 0.00 | 0.00 | 74 | 1021.3 |
| 20260903090738 | 78 | 209 | 1.0 | 9.0 | 0.00 | 0.00 | 0.00 | 74 | 1021.3 |
| 20260903090638 | 78 | 169 | 1.0 | 9.0 | 0.00 | 0.00 | 0.00 | 74 | 1021.4 |
| 20260903090538 | 78 | 169 | 1.0 | 9.0 | 0.00 | 0.00 | 0.00 | 74 | 1021.3 |
| 20260903090437 | 78 | 162 | 1.0 | 9.0 | 0.00 | 0.00 | 0.00 | 74 | 1021.4 |
| 20260903090339 | 78 | 162 | 1.0 | 9.0 | 0.00 | 0.00 | 0.00 | 74 | 1021.4 |
| 20260903090237 | 78 | 162 | 1.0 | 9.0 | 0.00 | 0.00 | 0.00 | 74 | 1021.3 |
| 20260903090137 | 78 | 165 | 1.0 | 9.0 | 0.00 | 0.00 | 0.00 | 74 | 1021.4 |
| 20260903090037 | 78 | 82 | 1.0 | 4.0 | 0.00 | 0.00 | 0.00 | 74 | 1021.4 |
| 20260903085935 | 78 | 80 | 1.0 | 4.0 | 0.00 | 0.00 | 0.00 | 74 | 1021.4 |
| 20260903085834 | 78 | 213 | 1.0 | 4.0 | 0.00 | 0.00 | 0.00 | 74 | 1021.4 |
| 20260903085728 | 78 | 93 | 1.0 | 4.0 | 0.00 | 0.00 | 0.00 | 74 | 1021.4 |
| 20260903085626 | 78 | 93 | 1.0 | 5.0 | 0.00 | 0.00 | 0.00 | 74 | 1021.4 |
| 20260903085604 | 78 | 91 | 1.0 | 5.0 | 0.00 | 0.00 | 0.00 | 74 | 1021.4 |
| 20260903085553 | 78 | 91 | 1.0 | 5.0 | 0.00 | 0.00 | 0.00 | 74 | 1021.5 |
| 20260903085327 | 78 | 169 | 1.0 | 7.0 | 0.00 | 0.00 | 0.00 | 74 | 1021.3 |
| 20260903085223 | 78 | 188 | 1.0 | 7.0 | 0.00 | 0.00 | 0.00 | 74 | 1021.4 |
| 20260903085119 | 78 | 188 | 1.0 | 7.0 | 0.00 | 0.00 | 0.00 | 74 | 1021.4 |
| 20260903085021 | 78 | 188 | 1.0 | 7.0 | 0.00 | 0.00 | 0.00 | 74 | 1021.4 |
| 20260903084924 | 78 | 220 | 1.0 | 7.0 | 0.00 | 0.00 | 0.00 | 74 | 1021.4 |
| 20260903084820 | 78 | 196 | 1.0 | 7.0 | 0.00 | 0.00 | 0.00 | 74 | 1021.4 |
| 20260903084744 | 78 | 172 | 1.0 | 7.0 | 0.00 | 0.00 | 0.00 | 74 | 1021.4 |
| 20260903084731 | 78 | 169 | 1.0 | 7.0 | 0.00 | 0.00 | 0.00 | 74 | 1021.4 |
| 20260903084551 | 78 | 145 | 1.0 | 5.0 | 0.00 | 0.00 | 0.00 | 74 | 1021.4 |
| 20260903084545 | 78 | 144 | 1.0 | 5.0 | 0.00 | 0.00 | 0.00 | 74 | 1021.5 |
| 20260903084539 | 78 | 165 | 1.0 | 5.0 | 0.00 | 0.00 | 0.00 | 74 | 1021.5 |
| 20260903084524 | 78 | 170 | 1.0 | 7.0 | 0.00 | 0.00 | 0.00 | 74 | 1021.5 |
| 20260903084505 | 78 | 51 | 1.0 | 5.0 | 0.00 | 0.00 | 0.00 | 74 | 1021.4 |
| 20260903084000 | 78 | 231 | 2.0 | 5.0 | 0.00 | 0.00 | 0.00 | 74 | 1021.5 |
| 20260903083900 | 78 | 231 | 1.0 | 5.0 | 0.00 | 0.00 | 0.00 | 74 | 1021.4 |
| 20260903083800 | 78 | 161 | 2.0 | 5.0 | 0.00 | 0.00 | 0.00 | 74 | 1021.4 |
| 20260903083700 | 78 | 148 | 2.0 | 5.0 | 0.00 | 0.00 | 0.00 | 74 | 1021.4 |
| 20260903083557 | 79 | 148 | 2.0 | 5.0 | 0.00 | 0.00 | 0.00 | 74 | 1021.4 |
| 20260903083456 | 79 | 148 | 2.0 | 5.0 | 0.00 | 0.00 | 0.00 | 74 | 1021.4 |
| 20260903083421 | 79 | 169 | 2.0 | 7.0 | 0.00 | 0.00 | 0.00 | 74 | 1021.4 |
| 20260903083415 | 79 | 198 | 2.0 | 7.0 | 0.00 | 0.00 | 0.00 | 74 | 1021.3 |
| 20260903083402 | 79 | 211 | 2.0 | 7.0 | 0.00 | 0.00 | 0.00 | 74 | 1021.4 |
| 20260903083338 | 79 | 189 | 2.0 | 7.0 | 0.00 | 0.00 | 0.00 | 74 | 1021.4 |
| 20260903082948 | 79 | 128 | 2.0 | 7.0 | 0.00 | 0.00 | 0.00 | 74 | 1021.4 |
| 20260903082846 | 79 | 215 | 2.0 | 7.0 | 0.00 | 0.00 | 0.00 | 74 | 1021.4 |
| 20260903082807 | 79 | 182 | 1.0 | 7.0 | 0.00 | 0.00 | 0.00 | 74 | 1021.3 |
| 20260903082759 | 79 | 182 | 1.0 | 7.0 | 0.00 | 0.00 | 0.00 | 74 | 1021.4 |
| 20260903082537 | 79 | 182 | 2.0 | 7.0 | 0.00 | 0.00 | 0.00 | 74 | 1021.3 |
| 20260903082438 | 79 | 171 | 2.0 | 6.0 | 0.00 | 0.00 | 0.00 | 74 | 1021.5 |
| 20260903082339 | 79 | 219 | 1.0 | 6.0 | 0.00 | 0.00 | 0.00 | 74 | 1021.4 |
| 20260903082239 | 79 | 223 | 1.0 | 6.0 | 0.00 | 0.00 | 0.00 | 74 | 1021.4 |
| 20260903082135 | 79 | 155 | 1.0 | 6.0 | 0.00 | 0.00 | 0.00 | 74 | 1021.4 |
| 20260903082037 | 79 | 152 | 1.0 | 6.0 | 0.00 | 0.00 | 0.00 | 74 | 1021.4 |
| 20260903081934 | 79 | 206 | 1.0 | 8.0 | 0.00 | 0.00 | 0.00 | 74 | 1021.5 |
| 20260903081834 | 79 | 204 | 1.0 | 8.0 | 0.00 | 0.00 | 0.00 | 74 | 1021.4 |
| 20260903081732 | 79 | 209 | 2.0 | 8.0 | 0.00 | 0.00 | 0.00 | 74 | 1021.4 |
| 20260903081641 | 79 | 153 | 1.0 | 8.0 | 0.00 | 0.00 | 0.00 | 74 | 1021.3 |
| 20260903081628 | 79 | 218 | 2.0 | 8.0 | 0.00 | 0.00 | 0.00 | 74 | 1021.4 |
| 20260903081428 | 79 | 173 | 1.0 | 8.0 | 0.00 | 0.00 | 0.00 | 74 | 1021.3 |
| 20260903081332 | 79 | 173 | 1.0 | 8.0 | 0.00 | 0.00 | 0.00 | 74 | 1021.3 |
| 20260903081232 | 79 | 156 | 1.0 | 8.0 | 0.00 | 0.00 | 0.00 | 73 | 1021.4 |
| 20260903081127 | 79 | 140 | 1.0 | 8.0 | 0.00 | 0.00 | 0.00 | 73 | 1021.4 |
| 20260903081025 | 79 | 192 | 1.0 | 8.0 | 0.00 | 0.00 | 0.00 | 74 | 1021.3 |
| 20260903080928 | 79 | 195 | 1.0 | 4.0 | 0.00 | 0.00 | 0.00 | 73 | 1021.3 |
| 20260903080822 | 79 | 192 | 1.0 | 5.0 | 0.00 | 0.00 | 0.00 | 73 | 1021.4 |
| 20260903080721 | 79 | 212 | 1.0 | 5.0 | 0.00 | 0.00 | 0.00 | 73 | 1021.4 |
| 20260903080622 | 79 | 126 | 1.0 | 5.0 | 0.00 | 0.00 | 0.00 | 73 | 1021.3 |
| 20260903080557 | 79 | 215 | 1.0 | 5.0 | 0.00 | 0.00 | 0.00 | 73 | 1021.4 |
| 20260903080545 | 79 | 215 | 1.0 | 5.0 | 0.00 | 0.00 | 0.00 | 73 | 1021.4 |
| 20260903080331 | 79 | 215 | 1.0 | 5.0 | 0.00 | 0.00 | 0.00 | 73 | 1021.4 |
| 20260903080221 | 79 | 217 | 1.0 | 5.0 | 0.00 | 0.00 | 0.00 | 73 | 1021.3 |
| 20260903080159 | 79 | 103 | 1.0 | 5.0 | 0.00 | 0.00 | 0.00 | 72 | 1021.3 |
| 20260903080150 | 79 | 198 | 1.0 | 5.0 | 0.00 | 0.00 | 0.00 | 73 | 1021.3 |
| 20260903075921 | 79 | 208 | 1.0 | 7.0 | 0.00 | 0.00 | 0.00 | 73 | 1021.4 |
| 20260903075827 | 79 | 159 | 1.0 | 7.0 | 0.00 | 0.00 | 0.00 | 72 | 1021.3 |
| 20260903075719 | 79 | 130 | 1.0 | 7.0 | 0.00 | 0.00 | 0.00 | 72 | 1021.3 |
| 20260903075621 | 79 | 128 | 1.0 | 7.0 | 0.00 | 0.00 | 0.00 | 72 | 1021.3 |
| 20260903075522 | 80 | 219 | 1.0 | 7.0 | 0.00 | 0.00 | 0.00 | 72 | 1021.3 |
| 20260903075418 | 80 | 192 | 1.0 | 7.0 | 0.00 | 0.00 | 0.00 | 72 | 1021.3 |
| 20260903075320 | 80 | 115 | 1.0 | 7.0 | 0.00 | 0.00 | 0.00 | 72 | 1021.3 |
| 20260903075220 | 80 | 230 | 1.0 | 7.0 | 0.00 | 0.00 | 0.00 | 72 | 1021.3 |
| 20260903075118 | 80 | 230 | 2.0 | 7.0 | 0.00 | 0.00 | 0.00 | 72 | 1021.3 |
| 20260903075017 | 80 | 231 | 2.0 | 7.0 | 0.00 | 0.00 | 0.00 | 72 | 1021.3 |
| 20260903074918 | 80 | 231 | 2.0 | 6.0 | 0.00 | 0.00 | 0.00 | 71 | 1021.2 |
| 20260903074820 | 80 | 206 | 2.0 | 5.0 | 0.00 | 0.00 | 0.00 | 71 | 1021.2 |
| 20260903074718 | 80 | 206 | 2.0 | 5.0 | 0.00 | 0.00 | 0.00 | 71 | 1021.1 |
| 20260903074619 | 80 | 202 | 2.0 | 5.0 | 0.00 | 0.00 | 0.00 | 71 | 1021.1 |
| 20260903074517 | 80 | 202 | 2.0 | 5.0 | 0.00 | 0.00 | 0.00 | 71 | 1021.2 |
| 20260903074417 | 80 | 202 | 1.0 | 5.0 | 0.00 | 0.00 | 0.00 | 71 | 1021.2 |
| 20260903074319 | 80 | 232 | 1.0 | 4.0 | 0.00 | 0.00 | 0.00 | 71 | 1021.2 |
| 20260903074218 | 80 | 194 | 1.0 | 4.0 | 0.00 | 0.00 | 0.00 | 71 | 1021.1 |
| 20260903074118 | 80 | 194 | 1.0 | 4.0 | 0.00 | 0.00 | 0.00 | 71 | 1021.2 |
| 20260903074017 | 80 | 161 | 1.0 | 4.0 | 0.00 | 0.00 | 0.00 | 71 | 1021.2 |
| 20260903073917 | 80 | 213 | 1.0 | 4.0 | 0.00 | 0.00 | 0.00 | 71 | 1021.1 |
| 20260903073819 | 80 | 206 | 1.0 | 4.0 | 0.00 | 0.00 | 0.00 | 71 | 1021.2 |
| 20260903073718 | 80 | 180 | 1.0 | 6.0 | 0.00 | 0.00 | 0.00 | 71 | 1021.2 |
| 20260903073649 | 80 | 198 | 1.0 | 6.0 | 0.00 | 0.00 | 0.00 | 71 | 1021.2 |
| 20260903073638 | 80 | 198 | 1.0 | 6.0 | 0.00 | 0.00 | 0.00 | 71 | 1021.2 |
| 20260903073450 | 80 | 198 | 1.0 | 6.0 | 0.00 | 0.00 | 0.00 | 71 | 1021.2 |
| 20260903073439 | 80 | 198 | 1.0 | 6.0 | 0.00 | 0.00 | 0.00 | 71 | 1021.2 |
| 20260903073213 | 80 | 171 | 1.0 | 6.0 | 0.00 | 0.00 | 0.00 | 71 | 1021.2 |
| 20260903073146 | 80 | 259 | 1.0 | 6.0 | 0.00 | 0.00 | 0.00 | 71 | 1021.3 |
| 20260903073135 | 80 | 259 | 1.0 | 6.0 | 0.00 | 0.00 | 0.00 | 71 | 1021.2 |
| 20260903072911 | 80 | 203 | 1.0 | 6.0 | 0.00 | 0.00 | 0.00 | 71 | 1021.2 |
| 20260903072809 | 80 | 169 | 1.0 | 6.0 | 0.00 | 0.00 | 0.00 | 71 | 1021.2 |
| 20260903072744 | 80 | 175 | 1.0 | 5.0 | 0.00 | 0.00 | 0.00 | 71 | 1021.2 |
| 20260903072733 | 80 | 196 | 1.0 | 5.0 | 0.00 | 0.00 | 0.00 | 71 | 1021.2 |
| 20260903072507 | 80 | 175 | 1.0 | 5.0 | 0.00 | 0.00 | 0.00 | 71 | 1021.1 |
| 20260903072407 | 80 | 221 | 1.0 | 5.0 | 0.00 | 0.00 | 0.00 | 71 | 1021.1 |
| 20260903072307 | 80 | 228 | 1.0 | 5.0 | 0.00 | 0.00 | 0.00 | 71 | 1021.2 |
| 20260903072205 | 80 | 228 | 1.0 | 5.0 | 0.00 | 0.00 | 0.00 | 71 | 1021.1 |
| 20260903072102 | 80 | 228 | 1.0 | 5.0 | 0.00 | 0.00 | 0.00 | 71 | 1021.1 |
| 20260903072001 | 80 | 194 | 1.0 | 5.0 | 0.00 | 0.00 | 0.00 | 71 | 1021.1 |
| 20260903071911 | 80 | 151 | 1.0 | 4.0 | 0.00 | 0.00 | 0.00 | 71 | 1021.2 |
| 20260903071759 | 80 | 151 | 1.0 | 4.0 | 0.00 | 0.00 | 0.00 | 71 | 1021.2 |
| 20260903071657 | 80 | 155 | 1.0 | 4.0 | 0.00 | 0.00 | 0.00 | 71 | 1021.2 |
| 20260903071557 | 80 | 153 | 1.0 | 4.0 | 0.00 | 0.00 | 0.00 | 71 | 1021.2 |
| 20260903071444 | 80 | 182 | 1.0 | 4.0 | 0.00 | 0.00 | 0.00 | 71 | 1021.1 |
| 20260903071342 | 80 | 181 | 1.0 | 4.0 | 0.00 | 0.00 | 0.00 | 71 | 1021.1 |
| 20260903071316 | 80 | 186 | 1.0 | 4.0 | 0.00 | 0.00 | 0.00 | 71 | 1021.1 |
| 20260903071304 | 80 | 159 | 1.0 | 4.0 | 0.00 | 0.00 | 0.00 | 71 | 1021.1 |
| 20260903071042 | 80 | 186 | 1.0 | 4.0 | 0.00 | 0.00 | 0.00 | 71 | 1021.1 |
| 20260903070939 | 80 | 146 | 1.0 | 4.0 | 0.00 | 0.00 | 0.00 | 70 | 1021.1 |
| 20260903070840 | 80 | 209 | 1.0 | 4.0 | 0.00 | 0.00 | 0.00 | 71 | 1021.1 |
| 20260903070739 | 80 | 209 | 1.0 | 4.0 | 0.00 | 0.00 | 0.00 | 70 | 1021.1 |
| 20260903070638 | 80 | 165 | 1.0 | 4.0 | 0.00 | 0.00 | 0.00 | 70 | 1021.1 |
| 20260903070536 | 80 | 167 | 1.0 | 4.0 | 0.00 | 0.00 | 0.00 | 70 | 1021.2 |
| 20260903070430 | 80 | 167 | 1.0 | 4.0 | 0.00 | 0.00 | 0.00 | 70 | 1021.1 |
| 20260903070330 | 80 | 203 | 1.0 | 4.0 | 0.00 | 0.00 | 0.00 | 70 | 1021.1 |
| 20260903070230 | 80 | 211 | 1.0 | 4.0 | 0.00 | 0.00 | 0.00 | 70 | 1021.1 |
| 20260903070139 | 80 | 203 | 1.0 | 4.0 | 0.00 | 0.00 | 0.00 | 70 | 1021.1 |
| 20260903070056 | 80 | 188 | 1.0 | 5.0 | 0.00 | 0.00 | 0.00 | 70 | 1021.1 |
| 20260903070051 | 80 | 152 | 1.0 | 4.0 | 0.00 | 0.00 | 0.00 | 70 | 1021.1 |
| 20260903070047 | 80 | 202 | 1.0 | 4.0 | 0.00 | 0.00 | 0.00 | 70 | 1021.1 |
| 20260903070034 | 80 | 152 | 1.0 | 4.0 | 0.00 | 0.00 | 0.00 | 70 | 1021.1 |
| 20260903070013 | 80 | 152 | 1.0 | 4.0 | 0.00 | 0.00 | 0.00 | 70 | 1021.1 |
| 20260903065825 | 80 | 202 | 1.0 | 4.0 | 0.00 | 0.00 | 0.00 | 70 | 1021.1 |
| 20260903065539 | 80 | 184 | 1.0 | 5.0 | 0.00 | 0.00 | 0.00 | 70 | 1021.1 |
| 20260903065315 | 80 | 189 | 1.0 | 5.0 | 0.00 | 0.00 | 0.00 | 70 | 1021.0 |
| 20260903065213 | 80 | 181 | 1.0 | 5.0 | 0.00 | 0.00 | 0.00 | 70 | 1021.1 |
| 20260903065149 | 80 | 181 | 1.0 | 5.0 | 0.00 | 0.00 | 0.00 | 70 | 1021.1 |
| 20260903065138 | 80 | 181 | 1.0 | 5.0 | 0.00 | 0.00 | 0.00 | 70 | 1021.1 |
| 20260903064909 | 80 | 179 | 1.0 | 5.0 | 0.00 | 0.00 | 0.00 | 70 | 1021.1 |
| 20260903064807 | 80 | 179 | 1.0 | 5.0 | 0.00 | 0.00 | 0.00 | 70 | 1021.1 |
| 20260903064740 | 80 | 191 | 1.0 | 4.0 | 0.00 | 0.00 | 0.00 | 70 | 1021.1 |
| 20260903064730 | 80 | 179 | 1.0 | 5.0 | 0.00 | 0.00 | 0.00 | 70 | 1021.1 |
| 20260903064508 | 80 | 205 | 1.0 | 4.0 | 0.00 | 0.00 | 0.00 | 70 | 1021.1 |
| 20260903064400 | 80 | 205 | 1.0 | 4.0 | 0.00 | 0.00 | 0.00 | 70 | 1021.1 |
| 20260903064302 | 80 | 205 | 1.0 | 5.0 | 0.00 | 0.00 | 0.00 | 70 | 1021.1 |
| 20260903064234 | 80 | 182 | 1.0 | 5.0 | 0.00 | 0.00 | 0.00 | 70 | 1021.1 |
| 20260903064224 | 80 | 205 | 1.0 | 5.0 | 0.00 | 0.00 | 0.00 | 70 | 1021.1 |
| 20260903063958 | 80 | 207 | 1.0 | 5.0 | 0.00 | 0.00 | 0.00 | 70 | 1021.2 |
| 20260903063858 | 80 | 207 | 1.0 | 5.0 | 0.00 | 0.00 | 0.00 | 70 | 1021.2 |
| 20260903063755 | 80 | 207 | 2.0 | 5.0 | 0.00 | 0.00 | 0.00 | 70 | 1021.2 |
| 20260903063656 | 80 | 207 | 2.0 | 5.0 | 0.00 | 0.00 | 0.00 | 70 | 1021.3 |
| 20260903063555 | 80 | 207 | 2.0 | 5.0 | 0.00 | 0.00 | 0.00 | 70 | 1021.2 |
| 20260903063512 | 80 | 200 | 2.0 | 5.0 | 0.00 | 0.00 | 0.00 | 69 | 1021.2 |
| 20260903063506 | 80 | 224 | 2.0 | 5.0 | 0.00 | 0.00 | 0.00 | 69 | 1021.2 |
| 20260903063454 | 80 | 210 | 2.0 | 5.0 | 0.00 | 0.00 | 0.00 | 69 | 1021.2 |
| 20260903063428 | 80 | 204 | 2.0 | 5.0 | 0.00 | 0.00 | 0.00 | 69 | 1021.2 |
| 20260903063045 | 80 | 223 | 2.0 | 5.0 | 0.00 | 0.00 | 0.00 | 69 | 1021.2 |
| 20260903062946 | 80 | 148 | 2.0 | 5.0 | 0.00 | 0.00 | 0.00 | 69 | 1021.2 |
| 20260903062834 | 80 | 173 | 1.0 | 5.0 | 0.00 | 0.00 | 0.00 | 69 | 1021.3 |
| 20260903062735 | 80 | 196 | 1.0 | 5.0 | 0.00 | 0.00 | 0.00 | 69 | 1021.2 |
| 20260903062636 | 80 | 190 | 1.0 | 8.0 | 0.00 | 0.00 | 0.00 | 69 | 1021.2 |
| 20260903062536 | 81 | 189 | 1.0 | 8.0 | 0.00 | 0.00 | 0.00 | 69 | 1021.3 |
| 20260903062432 | 81 | 192 | 1.0 | 8.0 | 0.00 | 0.00 | 0.00 | 69 | 1021.2 |
| 20260903062327 | 81 | 201 | 1.0 | 8.0 | 0.00 | 0.00 | 0.00 | 68 | 1021.2 |
| 20260903062232 | 81 | 205 | 1.0 | 8.0 | 0.00 | 0.00 | 0.00 | 68 | 1021.2 |
| 20260903062127 | 81 | 203 | 2.0 | 8.0 | 0.00 | 0.00 | 0.00 | 68 | 1021.3 |
| 20260903062026 | 81 | 203 | 2.0 | 8.0 | 0.00 | 0.00 | 0.00 | 68 | 1021.3 |
| 20260903061926 | 81 | 204 | 2.0 | 8.0 | 0.00 | 0.00 | 0.00 | 68 | 1021.2 |
| 20260903061821 | 81 | 203 | 2.0 | 8.0 | 0.00 | 0.00 | 0.00 | 68 | 1021.2 |
| 20260903061751 | 81 | 168 | 2.0 | 7.0 | 0.00 | 0.00 | 0.00 | 67 | 1021.2 |
| 20260903061745 | 81 | 140 | 2.0 | 9.0 | 0.00 | 0.00 | 0.00 | 67 | 1021.3 |
| 20260903061731 | 81 | 203 | 2.0 | 8.0 | 0.00 | 0.00 | 0.00 | 68 | 1021.2 |
| 20260903061702 | 81 | 231 | 2.0 | 7.0 | 0.00 | 0.00 | 0.00 | 68 | 1021.2 |
| 20260903061312 | 81 | 223 | 2.0 | 9.0 | 0.00 | 0.00 | 0.00 | 67 | 1021.2 |
| 20260903061208 | 81 | 202 | 2.0 | 9.0 | 0.00 | 0.00 | 0.00 | 67 | 1021.3 |
| 20260903061141 | 81 | 167 | 2.0 | 9.0 | 0.00 | 0.00 | 0.00 | 67 | 1021.3 |
| 20260903061136 | 81 | 220 | 2.0 | 9.0 | 0.00 | 0.00 | 0.00 | 67 | 1021.2 |
| 20260903061121 | 81 | 197 | 2.0 | 9.0 | 0.00 | 0.00 | 0.00 | 67 | 1021.2 |
| 20260903061055 | 81 | 169 | 2.0 | 9.0 | 0.00 | 0.00 | 0.00 | 67 | 1021.3 |
| 20260903060740 | 81 | 179 | 2.0 | 9.0 | 0.00 | 0.00 | 0.00 | 67 | 1021.3 |
| 20260903060727 | 81 | 188 | 2.0 | 9.0 | 0.00 | 0.00 | 0.00 | 67 | 1021.2 |
| 20260903060505 | 81 | 177 | 2.0 | 9.0 | 0.00 | 0.00 | 0.00 | 67 | 1021.3 |
| 20260903060403 | 81 | 188 | 2.0 | 8.0 | 0.00 | 0.00 | 0.00 | 67 | 1021.3 |
| 20260903060301 | 81 | 287 | 2.0 | 8.0 | 0.00 | 0.00 | 0.00 | 67 | 1021.2 |
| 20260903060202 | 81 | 210 | 2.0 | 8.0 | 0.00 | 0.00 | 0.00 | 67 | 1021.3 |
| 20260903060003 | 81 | 169 | 2.0 | 8.0 | 0.00 | 0.00 | 0.00 | 67 | 1021.3 |
| 20260903055901 | 81 | 168 | 2.0 | 8.0 | 0.00 | 0.00 | 0.00 | 67 | 1021.3 |
| 20260903055800 | 81 | 165 | 1.0 | 8.0 | 0.00 | 0.00 | 0.00 | 67 | 1021.2 |
| 20260903055701 | 81 | 142 | 2.0 | 6.0 | 0.00 | 0.00 | 0.00 | 67 | 1021.2 |
| 20260903055628 | 81 | 142 | 2.0 | 6.0 | 0.00 | 0.00 | 0.00 | 67 | 1021.3 |
| 20260903055551 | 81 | 138 | 2.0 | 7.0 | 0.00 | 0.00 | 0.00 | 67 | 1021.3 |
| 20260903055538 | 81 | 142 | 2.0 | 6.0 | 0.00 | 0.00 | 0.00 | 67 | 1021.3 |
| 20260903055258 | 81 | 214 | 2.0 | 7.0 | 0.00 | 0.00 | 0.00 | 67 | 1021.3 |
| 20260903055156 | 81 | 169 | 2.0 | 7.0 | 0.00 | 0.00 | 0.00 | 67 | 1021.3 |
| 20260903055053 | 81 | 143 | 2.0 | 7.0 | 0.00 | 0.00 | 0.00 | 67 | 1021.3 |
| 20260903054953 | 81 | 221 | 2.0 | 7.0 | 0.00 | 0.00 | 0.00 | 67 | 1021.3 |
| 20260903054849 | 81 | 221 | 2.0 | 7.0 | 0.00 | 0.00 | 0.00 | 67 | 1021.3 |
| 20260903054749 | 81 | 169 | 2.0 | 7.0 | 0.00 | 0.00 | 0.00 | 67 | 1021.3 |
| 20260903054649 | 81 | 169 | 2.0 | 7.0 | 0.00 | 0.00 | 0.00 | 66 | 1021.3 |
| 20260903054541 | 81 | 133 | 2.0 | 7.0 | 0.00 | 0.00 | 0.00 | 66 | 1021.3 |
| 20260903054442 | 81 | 117 | 2.0 | 8.0 | 0.00 | 0.00 | 0.00 | 66 | 1021.3 |
| 20260903054340 | 81 | 180 | 2.0 | 8.0 | 0.00 | 0.00 | 0.00 | 66 | 1021.3 |
| 20260903054239 | 81 | 183 | 2.0 | 8.0 | 0.00 | 0.00 | 0.00 | 66 | 1021.3 |
| 20260903054138 | 81 | 175 | 2.0 | 8.0 | 0.00 | 0.00 | 0.00 | 66 | 1021.3 |
| 20260903054031 | 81 | 150 | 2.0 | 8.0 | 0.00 | 0.00 | 0.00 | 66 | 1021.3 |
| 20260903053931 | 81 | 191 | 1.0 | 8.0 | 0.00 | 0.00 | 0.00 | 66 | 1021.3 |
| 20260903053832 | 81 | 175 | 1.0 | 8.0 | 0.00 | 0.00 | 0.00 | 66 | 1021.2 |
| 20260903053730 | 81 | 163 | 1.0 | 8.0 | 0.00 | 0.00 | 0.00 | 66 | 1021.3 |
| 20260903053630 | 81 | 155 | 2.0 | 8.0 | 0.00 | 0.00 | 0.00 | 66 | 1021.3 |
| 20260903053531 | 81 | 121 | 1.0 | 5.0 | 0.00 | 0.00 | 0.00 | 66 | 1021.3 |
| 20260903053432 | 81 | 165 | 1.0 | 5.0 | 0.00 | 0.00 | 0.00 | 66 | 1021.3 |
| 20260903053331 | 81 | 161 | 2.0 | 5.0 | 0.00 | 0.00 | 0.00 | 66 | 1021.2 |
| 20260903053229 | 81 | 157 | 2.0 | 6.0 | 0.00 | 0.00 | 0.00 | 66 | 1021.3 |
| 20260903053131 | 81 | 204 | 2.0 | 6.0 | 0.00 | 0.00 | 0.00 | 66 | 1021.3 |
| 20260903053027 | 81 | 178 | 2.0 | 6.0 | 0.00 | 0.00 | 0.00 | 66 | 1021.3 |
| 20260903052926 | 81 | 183 | 2.0 | 6.0 | 0.00 | 0.00 | 0.00 | 66 | 1021.3 |
| 20260903052827 | 81 | 215 | 2.0 | 6.0 | 0.00 | 0.00 | 0.00 | 66 | 1021.3 |
| 20260903052727 | 81 | 218 | 1.0 | 6.0 | 0.00 | 0.00 | 0.00 | 66 | 1021.3 |
| 20260903052627 | 81 | 206 | 1.0 | 6.0 | 0.00 | 0.00 | 0.00 | 65 | 1021.3 |
| 20260903052526 | 81 | 203 | 1.0 | 6.0 | 0.00 | 0.00 | 0.00 | 65 | 1021.3 |
| 20260903052424 | 81 | 192 | 1.0 | 6.0 | 0.00 | 0.00 | 0.00 | 65 | 1021.3 |
| 20260903052323 | 81 | 188 | 1.0 | 6.0 | 0.00 | 0.00 | 0.00 | 65 | 1021.3 |
| 20260903052227 | 81 | 162 | 1.0 | 5.0 | 0.00 | 0.00 | 0.00 | 65 | 1021.4 |
| 20260903052124 | 81 | 91 | 1.0 | 5.0 | 0.00 | 0.00 | 0.00 | 66 | 1021.4 |
| 20260903052022 | 81 | 174 | 1.0 | 5.0 | 0.00 | 0.00 | 0.00 | 65 | 1021.4 |
| 20260903051924 | 81 | 166 | 1.0 | 5.0 | 0.00 | 0.00 | 0.00 | 65 | 1021.3 |
| 20260903051823 | 81 | 200 | 1.0 | 5.0 | 0.00 | 0.00 | 0.00 | 65 | 1021.4 |
| 20260903051757 | 81 | 194 | 2.0 | 5.0 | 0.00 | 0.00 | 0.00 | 65 | 1021.4 |
| 20260903051745 | 81 | 174 | 1.0 | 5.0 | 0.00 | 0.00 | 0.00 | 65 | 1021.4 |
| 20260903051520 | 81 | 193 | 1.0 | 5.0 | 0.00 | 0.00 | 0.00 | 65 | 1021.4 |
| 20260903051422 | 81 | 144 | 1.0 | 5.0 | 0.00 | 0.00 | 0.00 | 65 | 1021.4 |
| 20260903051320 | 81 | 126 | 1.0 | 5.0 | 0.00 | 0.00 | 0.00 | 65 | 1021.4 |
| 20260903051249 | 81 | 165 | 2.0 | 5.0 | 0.00 | 0.00 | 0.00 | 65 | 1021.4 |
| 20260903051239 | 81 | 165 | 1.0 | 5.0 | 0.00 | 0.00 | 0.00 | 65 | 1021.3 |
| 20260903051056 | 81 | 123 | 1.0 | 4.0 | 0.00 | 0.00 | 0.00 | 65 | 1021.4 |
| 20260903051042 | 81 | 123 | 2.0 | 4.0 | 0.00 | 0.00 | 0.00 | 65 | 1021.4 |
| 20260903050812 | 81 | 195 | 1.0 | 4.0 | 0.00 | 0.00 | 0.00 | 65 | 1021.4 |
| 20260903050742 | 81 | 167 | 1.0 | 4.0 | 0.00 | 0.00 | 0.00 | 65 | 1021.5 |
| 20260903050734 | 81 | 88 | 1.0 | 4.0 | 0.00 | 0.00 | 0.00 | 65 | 1021.4 |
| 20260903050506 | 81 | 166 | 1.0 | 4.0 | 0.00 | 0.00 | 0.00 | 65 | 1021.4 |
| 20260903050439 | 81 | 193 | 1.0 | 4.0 | 0.00 | 0.00 | 0.00 | 65 | 1021.4 |
| 20260903050431 | 81 | 146 | 1.0 | 4.0 | 0.00 | 0.00 | 0.00 | 65 | 1021.4 |
| 20260903050207 | 81 | 194 | 1.0 | 4.0 | 0.00 | 0.00 | 0.00 | 65 | 1021.4 |
| 20260903050109 | 81 | 173 | 1.0 | 4.0 | 0.00 | 0.00 | 0.00 | 65 | 1021.5 |
| 20260903050006 | 81 | 167 | 1.0 | 4.0 | 0.00 | 0.00 | 0.00 | 65 | 1021.4 |
| 20260903045913 | 81 | 215 | 1.0 | 5.0 | 0.00 | 0.00 | 0.00 | 65 | 1021.4 |
| 20260903045805 | 81 | 184 | 1.0 | 5.0 | 0.00 | 0.00 | 0.00 | 65 | 1021.4 |
| 20260903045708 | 81 | 168 | 1.0 | 5.0 | 0.00 | 0.00 | 0.00 | 65 | 1021.4 |
| 20260903045605 | 81 | 157 | 1.0 | 6.0 | 0.00 | 0.00 | 0.00 | 65 | 1021.4 |
| 20260903045507 | 81 | 140 | 1.0 | 6.0 | 0.00 | 0.00 | 0.00 | 65 | 1021.3 |
| 20260903045405 | 81 | 138 | 1.0 | 6.0 | 0.00 | 0.00 | 0.00 | 64 | 1021.4 |
| 20260903045308 | 81 | 111 | 1.0 | 6.0 | 0.00 | 0.00 | 0.00 | 65 | 1021.4 |
| 20260903045209 | 82 | 111 | 2.0 | 6.0 | 0.00 | 0.00 | 0.00 | 64 | 1021.3 |
| 20260903045201 | 82 | 172 | 1.0 | 6.0 | 0.00 | 0.00 | 0.00 | 65 | 1021.4 |
| 20260903045156 | 82 | 155 | 1.0 | 6.0 | 0.00 | 0.00 | 0.00 | 64 | 1021.4 |
| 20260903045140 | 82 | 111 | 1.0 | 6.0 | 0.00 | 0.00 | 0.00 | 65 | 1021.4 |
| 20260903044950 | 82 | 223 | 1.0 | 6.0 | 0.00 | 0.00 | 0.00 | 65 | 1021.4 |
| 20260903044724 | 82 | 71 | 1.0 | 5.0 | 0.00 | 0.00 | 0.00 | 65 | 1021.4 |
| 20260903044711 | 82 | 176 | 1.0 | 6.0 | 0.00 | 0.00 | 0.00 | 65 | 1021.4 |
| 20260903044649 | 82 | 121 | 1.0 | 5.0 | 0.00 | 0.00 | 0.00 | 65 | 1021.4 |
| 20260903044406 | 82 | 104 | 2.0 | 5.0 | 0.00 | 0.00 | 0.00 | 64 | 1021.5 |
| 20260903044306 | 82 | 208 | 2.0 | 5.0 | 0.00 | 0.00 | 0.00 | 64 | 1021.5 |
| 20260903044207 | 82 | 213 | 2.0 | 5.0 | 0.00 | 0.00 | 0.00 | 65 | 1021.5 |
| 20260903044110 | 82 | 109 | 2.0 | 5.0 | 0.00 | 0.00 | 0.00 | 65 | 1021.4 |
| 20260903044033 | 82 | 136 | 1.0 | 5.0 | 0.00 | 0.00 | 0.00 | 65 | 1021.4 |
| 20260903044023 | 82 | 109 | 1.0 | 5.0 | 0.00 | 0.00 | 0.00 | 65 | 1021.5 |
| 20260903043801 | 82 | 134 | 1.0 | 5.0 | 0.00 | 0.00 | 0.00 | 65 | 1021.4 |
| 20260903043739 | 82 | 191 | 1.0 | 5.0 | 0.00 | 0.00 | 0.00 | 64 | 1021.5 |
| 20260903043728 | 82 | 171 | 1.0 | 5.0 | 0.00 | 0.00 | 0.00 | 64 | 1021.4 |
| 20260903043501 | 82 | 186 | 1.0 | 5.0 | 0.00 | 0.00 | 0.00 | 64 | 1021.5 |
| 20260903043438 | 82 | 120 | 1.0 | 5.0 | 0.00 | 0.00 | 0.00 | 64 | 1021.5 |
| 20260903043429 | 82 | 196 | 1.0 | 5.0 | 0.00 | 0.00 | 0.00 | 64 | 1021.4 |
| 20260903043204 | 82 | 238 | 1.0 | 5.0 | 0.00 | 0.00 | 0.00 | 64 | 1021.5 |
| 20260903043102 | 82 | 190 | 1.0 | 5.0 | 0.00 | 0.00 | 0.00 | 64 | 1021.5 |
| 20260903043002 | 82 | 184 | 1.0 | 5.0 | 0.00 | 0.00 | 0.00 | 64 | 1021.5 |
| 20260903042902 | 82 | 159 | 1.0 | 5.0 | 0.00 | 0.00 | 0.00 | 64 | 1021.5 |
| 20260903042804 | 82 | 159 | 1.0 | 5.0 | 0.00 | 0.00 | 0.00 | 64 | 1021.5 |
| 20260903042704 | 82 | 157 | 1.0 | 5.0 | 0.00 | 0.00 | 0.00 | 64 | 1021.5 |
| 20260903042602 | 82 | 171 | 1.0 | 5.0 | 0.00 | 0.00 | 0.00 | 64 | 1021.5 |
| 20260903042504 | 82 | 185 | 1.0 | 5.0 | 0.00 | 0.00 | 0.00 | 64 | 1021.5 |
| 20260903042401 | 82 | 194 | 1.0 | 3.0 | 0.00 | 0.00 | 0.00 | 64 | 1021.7 |
| 20260903042305 | 82 | 194 | 1.0 | 3.0 | 0.00 | 0.00 | 0.00 | 64 | 1021.5 |
| 20260903042201 | 82 | 198 | 1.0 | 3.0 | 0.00 | 0.00 | 0.00 | 64 | 1021.5 |
| 20260903042102 | 82 | 198 | 1.0 | 3.0 | 0.00 | 0.00 | 0.00 | 65 | 1021.7 |
| 20260903042001 | 82 | 198 | 1.0 | 3.0 | 0.00 | 0.00 | 0.00 | 65 | 1021.5 |
| 20260903041932 | 82 | 198 | 1.0 | 3.0 | 0.00 | 0.00 | 0.00 | 65 | 1021.7 |
| 20260903041922 | 82 | 198 | 1.0 | 3.0 | 0.00 | 0.00 | 0.00 | 65 | 1021.7 |
| 20260903041705 | 82 | 165 | 1.0 | 3.0 | 0.00 | 0.00 | 0.00 | 65 | 1021.7 |
| 20260903041601 | 82 | 148 | 1.0 | 3.0 | 0.00 | 0.00 | 0.00 | 66 | 1021.7 |
| 20260903041542 | 82 | 144 | 1.0 | 3.0 | 0.00 | 0.00 | 0.00 | 66 | 1021.7 |
| 20260903041526 | 81 | 144 | 1.0 | 3.0 | 0.00 | 0.00 | 0.00 | 66 | 1021.5 |
| 20260903041333 | 82 | 144 | 1.0 | 4.0 | 0.00 | 0.00 | 0.00 | 66 | 1021.7 |
| 20260903041324 | 82 | 144 | 1.0 | 3.0 | 0.00 | 0.00 | 0.00 | 66 | 1021.7 |
| 20260903041103 | 82 | 182 | 1.0 | 4.0 | 0.00 | 0.00 | 0.00 | 67 | 1021.7 |
| 20260903041004 | 82 | 184 | 1.0 | 4.0 | 0.00 | 0.00 | 0.00 | 67 | 1021.5 |
| 20260903040902 | 82 | 184 | 1.0 | 4.0 | 0.00 | 0.00 | 0.00 | 67 | 1021.7 |
| 20260903040801 | 82 | 184 | 1.0 | 4.0 | 0.00 | 0.00 | 0.00 | 67 | 1021.7 |
| 20260903040702 | 82 | 144 | 1.0 | 4.0 | 0.00 | 0.00 | 0.00 | 66 | 1021.7 |
| 20260903040610 | 82 | 207 | 1.0 | 4.0 | 0.00 | 0.00 | 0.00 | 66 | 1021.7 |
| 20260903040556 | 82 | 220 | 1.0 | 4.0 | 0.00 | 0.00 | 0.00 | 67 | 1021.7 |
| 20260903040533 | 82 | 220 | 1.0 | 4.0 | 0.00 | 0.00 | 0.00 | 66 | 1021.7 |
| 20260903040309 | 82 | 113 | 1.0 | 4.0 | 0.00 | 0.00 | 0.00 | 67 | 1021.7 |
| 20260903040202 | 82 | 165 | 1.0 | 3.0 | 0.00 | 0.00 | 0.00 | 67 | 1021.7 |
| 20260903040104 | 82 | 175 | 1.0 | 3.0 | 0.00 | 0.00 | 0.00 | 67 | 1021.7 |
| 20260903040038 | 82 | 174 | 1.0 | 4.0 | 0.00 | 0.00 | 0.00 | 68 | 1021.7 |
| 20260903040027 | 82 | 175 | 1.0 | 4.0 | 0.00 | 0.00 | 0.00 | 68 | 1021.7 |
| 20260903035800 | 82 | 174 | 1.0 | 4.0 | 0.00 | 0.00 | 0.00 | 68 | 1021.7 |
| 20260903035735 | 82 | 124 | 1.0 | 4.0 | 0.00 | 0.00 | 0.00 | 68 | 1021.7 |
| 20260903035653 | 82 | 138 | 1.0 | 4.0 | 0.00 | 0.00 | 0.00 | 67 | 1021.7 |
| 20260903035635 | 82 | 139 | 1.0 | 4.0 | 0.00 | 0.00 | 0.00 | 68 | 1021.7 |
| 20260903035359 | 82 | 138 | 1.0 | 4.0 | 0.00 | 0.00 | 0.00 | 67 | 1021.5 |
| 20260903035301 | 82 | 138 | 1.0 | 4.0 | 0.00 | 0.00 | 0.00 | 67 | 1021.5 |
| 20260903035156 | 82 | 130 | 1.0 | 4.0 | 0.00 | 0.00 | 0.00 | 67 | 1021.7 |
| 20260903035054 | 82 | 166 | 1.0 | 6.0 | 0.00 | 0.00 | 0.00 | 67 | 1021.7 |
| 20260903034956 | 82 | 125 | 1.0 | 6.0 | 0.00 | 0.00 | 0.00 | 67 | 1021.7 |
| 20260903034944 | 82 | 155 | 2.0 | 6.0 | 0.00 | 0.00 | 0.00 | 67 | 1021.7 |
| 20260903034926 | 82 | 159 | 1.0 | 6.0 | 0.00 | 0.00 | 0.00 | 67 | 1021.7 |
| 20260903034654 | 82 | 165 | 2.0 | 6.0 | 0.00 | 0.00 | 0.00 | 67 | 1021.7 |
| 20260903034553 | 82 | 146 | 2.0 | 6.0 | 0.00 | 0.00 | 0.00 | 67 | 1021.7 |
| 20260903034459 | 82 | 146 | 2.0 | 6.0 | 0.00 | 0.00 | 0.00 | 67 | 1021.7 |
| 20260903034357 | 82 | 171 | 2.0 | 6.0 | 0.00 | 0.00 | 0.00 | 67 | 1021.7 |
| 20260903034259 | 82 | 113 | 2.0 | 6.0 | 0.00 | 0.00 | 0.00 | 67 | 1021.7 |
| 20260903034154 | 82 | 167 | 2.0 | 6.0 | 0.00 | 0.00 | 0.00 | 67 | 1021.7 |
| 20260903034055 | 82 | 135 | 2.0 | 4.0 | 0.00 | 0.00 | 0.00 | 67 | 1021.7 |
| 20260903033954 | 82 | 118 | 2.0 | 6.0 | 0.00 | 0.00 | 0.00 | 67 | 1021.7 |
| 20260903033855 | 82 | 136 | 2.0 | 6.0 | 0.00 | 0.00 | 0.00 | 67 | 1021.7 |
| 20260903033754 | 82 | 129 | 2.0 | 6.0 | 0.00 | 0.00 | 0.00 | 67 | 1021.7 |
| 20260903033709 | 82 | 125 | 2.0 | 6.0 | 0.00 | 0.00 | 0.00 | 67 | 1021.7 |
| 20260903033603 | 82 | 103 | 2.0 | 6.0 | 0.00 | 0.00 | 0.00 | 67 | 1021.8 |
| 20260903033456 | 82 | 130 | 2.0 | 6.0 | 0.00 | 0.00 | 0.00 | 67 | 1021.7 |
| 20260903033352 | 82 | 184 | 2.0 | 6.0 | 0.00 | 0.00 | 0.00 | 67 | 1021.7 |
| 20260903033253 | 82 | 89 | 2.0 | 6.0 | 0.00 | 0.00 | 0.00 | 67 | 1021.8 |
| 20260903033150 | 82 | 118 | 2.0 | 6.0 | 0.00 | 0.00 | 0.00 | 67 | 1021.7 |
| 20260903033057 | 82 | 107 | 2.0 | 6.0 | 0.00 | 0.00 | 0.00 | 67 | 1021.8 |
| 20260903033030 | 82 | 170 | 2.0 | 7.0 | 0.00 | 0.00 | 0.00 | 67 | 1021.8 |
| 20260903033015 | 82 | 92 | 2.0 | 7.0 | 0.00 | 0.00 | 0.00 | 67 | 1021.8 |
| 20260903032757 | 82 | 119 | 2.0 | 7.0 | 0.00 | 0.00 | 0.00 | 67 | 1021.8 |
| 20260903032713 | 83 | 174 | 2.0 | 8.0 | 0.00 | 0.00 | 0.00 | 66 | 1021.8 |
| 20260903032707 | 82 | 96 | 2.0 | 7.0 | 0.00 | 0.00 | 0.00 | 67 | 1021.8 |
| 20260903032650 | 82 | 129 | 2.0 | 7.0 | 0.00 | 0.00 | 0.00 | 67 | 1021.9 |
| 20260903032627 | 82 | 186 | 2.0 | 7.0 | 0.00 | 0.00 | 0.00 | 67 | 1021.8 |
| 20260903032435 | 83 | 95 | 2.0 | 8.0 | 0.00 | 0.00 | 0.00 | 67 | 1021.8 |
| 20260903032317 | 83 | 124 | 2.0 | 8.0 | 0.00 | 0.00 | 0.00 | 66 | 1021.8 |
| 20260903032305 | 83 | 115 | 2.0 | 8.0 | 0.00 | 0.00 | 0.00 | 67 | 1021.8 |
| 20260903032235 | 83 | 192 | 2.0 | 8.0 | 0.00 | 0.00 | 0.00 | 66 | 1021.8 |
| 20260903031838 | 83 | 115 | 2.0 | 8.0 | 0.00 | 0.00 | 0.00 | 66 | 1021.9 |
| 20260903031819 | 83 | 99 | 2.0 | 8.0 | 0.00 | 0.00 | 0.00 | 66 | 1021.9 |
| 20260903031805 | 83 | 111 | 2.0 | 8.0 | 0.00 | 0.00 | 0.00 | 66 | 1021.8 |
| 20260903031532 | 83 | 117 | 2.0 | 8.0 | 0.00 | 0.00 | 0.00 | 66 | 1021.9 |
| 20260903031524 | 83 | 136 | 2.0 | 6.0 | 0.00 | 0.00 | 0.00 | 66 | 1021.9 |
| 20260903031507 | 83 | 95 | 2.0 | 8.0 | 0.00 | 0.00 | 0.00 | 66 | 1021.9 |
| 20260903031244 | 83 | 136 | 2.0 | 6.0 | 0.00 | 0.00 | 0.00 | 66 | 1021.9 |
| 20260903031134 | 83 | 179 | 2.0 | 6.0 | 0.00 | 0.00 | 0.00 | 66 | 1021.9 |
| 20260903031030 | 83 | 203 | 2.0 | 7.0 | 0.00 | 0.00 | 0.00 | 66 | 1021.9 |
| 20260903030932 | 83 | 105 | 2.0 | 10.0 | 0.00 | 0.00 | 0.00 | 66 | 1021.9 |
| 20260903030837 | 83 | 148 | 2.0 | 10.0 | 0.00 | 0.00 | 0.00 | 66 | 1021.9 |
| 20260903030804 | 83 | 113 | 2.0 | 10.0 | 0.00 | 0.00 | 0.00 | 65 | 1021.9 |
| 20260903030751 | 83 | 121 | 2.0 | 10.0 | 0.00 | 0.00 | 0.00 | 65 | 1021.9 |
| 20260903030524 | 83 | 135 | 1.0 | 10.0 | 0.00 | 0.00 | 0.00 | 65 | 1021.9 |
| 20260903030425 | 83 | 122 | 1.0 | 10.0 | 0.00 | 0.00 | 0.00 | 65 | 1021.9 |
| 20260903030329 | 83 | 88 | 1.0 | 10.0 | 0.00 | 0.00 | 0.00 | 65 | 1021.9 |
| 20260903030224 | 83 | 85 | 1.0 | 10.0 | 0.00 | 0.00 | 0.00 | 65 | 1021.9 |
| 20260903030148 | 83 | 113 | 1.0 | 7.0 | 0.00 | 0.00 | 0.00 | 65 | 1022.0 |
| 20260903030142 | 83 | 107 | 1.0 | 7.0 | 0.00 | 0.00 | 0.00 | 65 | 1021.9 |
| 20260903030131 | 83 | 78 | 1.0 | 10.0 | 0.00 | 0.00 | 0.00 | 65 | 1022.0 |
| 20260903030109 | 83 | 74 | 1.0 | 7.0 | 0.00 | 0.00 | 0.00 | 65 | 1022.0 |
| 20260903025718 | 83 | 121 | 1.0 | 7.0 | 0.00 | 0.00 | 0.00 | 65 | 1022.0 |
| 20260903025613 | 83 | 121 | 1.0 | 6.0 | 0.00 | 0.00 | 0.00 | 65 | 1021.9 |
| 20260903025513 | 83 | 121 | 2.0 | 6.0 | 0.00 | 0.00 | 0.00 | 64 | 1021.9 |
| 20260903025445 | 83 | 117 | 2.0 | 6.0 | 0.00 | 0.00 | 0.00 | 64 | 1022.0 |
| 20260903025433 | 83 | 117 | 2.0 | 6.0 | 0.00 | 0.00 | 0.00 | 65 | 1021.9 |
| 20260903025214 | 83 | 110 | 2.0 | 6.0 | 0.00 | 0.00 | 0.00 | 64 | 1022.0 |
| 20260903025113 | 83 | 121 | 2.0 | 6.0 | 0.00 | 0.00 | 0.00 | 64 | 1022.0 |
| 20260903025105 | 83 | 123 | 2.0 | 6.0 | 0.00 | 0.00 | 0.00 | 64 | 1022.0 |
| 20260903025101 | 83 | 97 | 2.0 | 6.0 | 0.00 | 0.00 | 0.00 | 64 | 1022.0 |
| 20260903025055 | 83 | 105 | 2.0 | 6.0 | 0.00 | 0.00 | 0.00 | 64 | 1021.9 |
| 20260903025042 | 83 | 121 | 2.0 | 6.0 | 0.00 | 0.00 | 0.00 | 65 | 1022.0 |
| 20260903024851 | 83 | 116 | 2.0 | 6.0 | 0.00 | 0.00 | 0.00 | 64 | 1022.0 |
| 20260903024505 | 83 | 105 | 2.0 | 6.0 | 0.00 | 0.00 | 0.00 | 64 | 1022.0 |
| 20260903024402 | 83 | 92 | 2.0 | 6.0 | 0.00 | 0.00 | 0.00 | 64 | 1022.0 |
| 20260903024300 | 83 | 99 | 2.0 | 6.0 | 0.00 | 0.00 | 0.00 | 64 | 1021.9 |
| 20260903024245 | 83 | 119 | 2.0 | 6.0 | 0.00 | 0.00 | 0.00 | 64 | 1021.9 |
| 20260903024230 | 83 | 92 | 2.0 | 6.0 | 0.00 | 0.00 | 0.00 | 64 | 1021.9 |
| 20260903023958 | 83 | 120 | 2.0 | 4.0 | 0.00 | 0.00 | 0.00 | 64 | 1021.9 |
| 20260903023910 | 83 | 125 | 2.0 | 4.0 | 0.00 | 0.00 | 0.00 | 64 | 1021.9 |
| 20260903023858 | 83 | 120 | 2.0 | 4.0 | 0.00 | 0.00 | 0.00 | 64 | 1021.9 |
| 20260903023850 | 83 | 114 | 1.0 | 4.0 | 0.00 | 0.00 | 0.00 | 64 | 1021.8 |
| 20260903023846 | 83 | 80 | 2.0 | 4.0 | 0.00 | 0.00 | 0.00 | 64 | 1021.9 |
| 20260903023832 | 83 | 126 | 2.0 | 4.0 | 0.00 | 0.00 | 0.00 | 64 | 1021.9 |
| 20260903023638 | 83 | 119 | 2.0 | 4.0 | 0.00 | 0.00 | 0.00 | 64 | 1021.8 |
| 20260903023252 | 83 | 78 | 2.0 | 4.0 | 0.00 | 0.00 | 0.00 | 64 | 1021.9 |
| 20260903023150 | 83 | 76 | 2.0 | 4.0 | 0.00 | 0.00 | 0.00 | 64 | 1021.9 |
| 20260903023123 | 83 | 86 | 2.0 | 4.0 | 0.00 | 0.00 | 0.00 | 64 | 1022.0 |
| 20260903023114 | 83 | 113 | 2.0 | 4.0 | 0.00 | 0.00 | 0.00 | 64 | 1021.9 |
| 20260903022852 | 83 | 84 | 2.0 | 4.0 | 0.00 | 0.00 | 0.00 | 64 | 1021.9 |
| 20260903022753 | 83 | 82 | 2.0 | 4.0 | 0.00 | 0.00 | 0.00 | 64 | 1021.9 |
| 20260903022649 | 83 | 92 | 2.0 | 4.0 | 0.00 | 0.00 | 0.00 | 64 | 1021.9 |
| 20260903022638 | 83 | 109 | 2.0 | 4.0 | 0.00 | 0.00 | 0.00 | 64 | 1022.0 |
| 20260903022632 | 83 | 115 | 2.0 | 4.0 | 0.00 | 0.00 | 0.00 | 64 | 1022.0 |
| 20260903022618 | 83 | 99 | 2.0 | 4.0 | 0.00 | 0.00 | 0.00 | 64 | 1021.9 |
| 20260903022553 | 83 | 96 | 2.0 | 4.0 | 0.00 | 0.00 | 0.00 | 64 | 1021.9 |
| 20260903022441 | 83 | 117 | 2.0 | 4.0 | 0.00 | 0.00 | 0.00 | 64 | 1022.0 |
| 20260903022434 | 83 | 100 | 2.0 | 4.0 | 0.00 | 0.00 | 0.00 | 64 | 1021.9 |
| 20260903022415 | 83 | 96 | 2.0 | 4.0 | 0.00 | 0.00 | 0.00 | 64 | 1021.9 |
| 20260903022353 | 83 | 74 | 2.0 | 4.0 | 0.00 | 0.00 | 0.00 | 64 | 1021.9 |
| 20260903022042 | 83 | 117 | 2.0 | 4.0 | 0.00 | 0.00 | 0.00 | 64 | 1021.9 |
| 20260903021928 | 83 | 113 | 2.0 | 4.0 | 0.00 | 0.00 | 0.00 | 64 | 1021.9 |
| 20260903021912 | 83 | 100 | 2.0 | 4.0 | 0.00 | 0.00 | 0.00 | 64 | 1021.9 |
| 20260903021852 | 83 | 100 | 2.0 | 4.0 | 0.00 | 0.00 | 0.00 | 64 | 1021.9 |
| 20260903021415 | 83 | 87 | 2.0 | 4.0 | 0.00 | 0.00 | 0.00 | 64 | 1021.9 |
| 20260903021405 | 83 | 87 | 2.0 | 4.0 | 0.00 | 0.00 | 0.00 | 64 | 1021.9 |
| 20260903021136 | 83 | 86 | 1.0 | 4.0 | 0.00 | 0.00 | 0.00 | 64 | 1021.9 |
| 20260903021034 | 83 | 98 | 1.0 | 4.0 | 0.00 | 0.00 | 0.00 | 64 | 1021.8 |
| 20260903020934 | 83 | 61 | 1.0 | 5.0 | 0.00 | 0.00 | 0.00 | 64 | 1021.9 |
| 20260903020834 | 83 | 61 | 1.0 | 5.0 | 0.00 | 0.00 | 0.00 | 64 | 1021.9 |
| 20260903020732 | 83 | 61 | 1.0 | 5.0 | 0.00 | 0.00 | 0.00 | 64 | 1021.9 |
| 20260903020625 | 83 | 96 | 1.0 | 5.0 | 0.00 | 0.00 | 0.00 | 64 | 1021.9 |
| 20260903020522 | 83 | 96 | 1.0 | 5.0 | 0.00 | 0.00 | 0.00 | 64 | 1021.9 |
| 20260903020423 | 83 | 96 | 1.0 | 5.0 | 0.00 | 0.00 | 0.00 | 63 | 1021.9 |
| 20260903020323 | 83 | 101 | 1.0 | 5.0 | 0.00 | 0.00 | 0.00 | 63 | 1021.9 |
| 20260903020226 | 83 | 65 | 1.0 | 5.0 | 0.00 | 0.00 | 0.00 | 63 | 1021.9 |
| 20260903020117 | 83 | 65 | 1.0 | 5.0 | 0.00 | 0.00 | 0.00 | 63 | 1021.8 |
| 20260903020015 | 83 | 98 | 1.0 | 4.0 | 0.00 | 0.00 | 0.00 | 63 | 1021.9 |
| 20260903015915 | 83 | 98 | 2.0 | 4.0 | 0.00 | 0.00 | 0.00 | 63 | 1021.8 |
| 20260903015816 | 83 | 99 | 2.0 | 4.0 | 0.00 | 0.00 | 0.00 | 63 | 1021.8 |
| 20260903015717 | 83 | 99 | 2.0 | 4.0 | 0.00 | 0.00 | 0.00 | 63 | 1021.8 |
| 20260903015613 | 83 | 76 | 2.0 | 4.0 | 0.00 | 0.00 | 0.00 | 63 | 1021.8 |
| 20260903015511 | 83 | 76 | 2.0 | 4.0 | 0.00 | 0.00 | 0.00 | 62 | 1021.8 |
| 20260903015410 | 83 | 76 | 1.0 | 4.0 | 0.00 | 0.00 | 0.00 | 62 | 1021.8 |
| 20260903015314 | 83 | 61 | 1.0 | 4.0 | 0.00 | 0.00 | 0.00 | 62 | 1021.8 |
| 20260903015211 | 83 | 61 | 2.0 | 4.0 | 0.00 | 0.00 | 0.00 | 62 | 1021.7 |
| 20260903015058 | 83 | 61 | 2.0 | 4.0 | 0.00 | 0.00 | 0.00 | 62 | 1021.7 |
| 20260903014958 | 83 | 61 | 1.0 | 4.0 | 0.00 | 0.00 | 0.00 | 62 | 1021.7 |
| 20260903014857 | 83 | 90 | 1.0 | 4.0 | 0.00 | 0.00 | 0.00 | 62 | 1021.7 |
| 20260903014756 | 83 | 103 | 1.0 | 4.0 | 0.00 | 0.00 | 0.00 | 62 | 1021.8 |
| 20260903014651 | 84 | 103 | 1.0 | 4.0 | 0.00 | 0.00 | 0.00 | 62 | 1021.7 |
| 20260903014552 | 84 | 146 | 1.0 | 4.0 | 0.00 | 0.00 | 0.00 | 62 | 1021.7 |
| 20260903014449 | 84 | 146 | 1.0 | 4.0 | 0.00 | 0.00 | 0.00 | 62 | 1021.7 |
| 20260903014348 | 84 | 92 | 2.0 | 4.0 | 0.00 | 0.00 | 0.00 | 61 | 1021.7 |
| 20260903014248 | 84 | 92 | 2.0 | 4.0 | 0.00 | 0.00 | 0.00 | 61 | 1021.7 |
| 20260903014226 | 84 | 92 | 2.0 | 4.0 | 0.00 | 0.00 | 0.00 | 61 | 1021.7 |
| 20260903014212 | 84 | 91 | 1.0 | 4.0 | 0.00 | 0.00 | 0.00 | 61 | 1021.7 |
| 20260903013943 | 84 | 92 | 2.0 | 4.0 | 0.00 | 0.00 | 0.00 | 61 | 1021.8 |
| 20260903013844 | 84 | 88 | 2.0 | 4.0 | 0.00 | 0.00 | 0.00 | 61 | 1021.7 |
| 20260903013744 | 84 | 88 | 2.0 | 4.0 | 0.00 | 0.00 | 0.00 | 61 | 1021.7 |
| 20260903013640 | 84 | 88 | 2.0 | 5.0 | 0.00 | 0.00 | 0.00 | 61 | 1021.7 |
| 20260903013533 | 84 | 88 | 2.0 | 5.0 | 0.00 | 0.00 | 0.00 | 60 | 1021.8 |
| 20260903013436 | 84 | 103 | 2.0 | 5.0 | 0.00 | 0.00 | 0.00 | 60 | 1021.8 |
| 20260903013418 | 84 | 99 | 2.0 | 5.0 | 0.00 | 0.00 | 0.00 | 60 | 1021.8 |
| 20260903013402 | 84 | 86 | 2.0 | 5.0 | 0.00 | 0.00 | 0.00 | 60 | 1021.8 |
| 20260903013130 | 84 | 99 | 2.0 | 7.0 | 0.00 | 0.00 | 0.00 | 60 | 1021.8 |
| 20260903013042 | 84 | 87 | 2.0 | 7.0 | 0.00 | 0.00 | 0.00 | 60 | 1021.7 |
| 20260903013028 | 84 | 90 | 2.0 | 7.0 | 0.00 | 0.00 | 0.00 | 60 | 1021.7 |
| 20260903013007 | 84 | 81 | 2.0 | 7.0 | 0.00 | 0.00 | 0.00 | 60 | 1021.7 |
| 20260903012845 | 84 | 81 | 2.0 | 7.0 | 0.00 | 0.00 | 0.00 | 60 | 1021.7 |
| 20260903012623 | 84 | 65 | 2.0 | 7.0 | 0.00 | 0.00 | 0.00 | 60 | 1021.8 |
| 20260903012519 | 84 | 65 | 2.0 | 7.0 | 0.00 | 0.00 | 0.00 | 60 | 1021.7 |
| 20260903012417 | 84 | 65 | 2.0 | 7.0 | 0.00 | 0.00 | 0.00 | 60 | 1021.7 |
| 20260903012319 | 84 | 65 | 2.0 | 7.0 | 0.00 | 0.00 | 0.00 | 60 | 1021.7 |
| 20260903012219 | 84 | 103 | 2.0 | 7.0 | 0.00 | 0.00 | 0.00 | 60 | 1021.8 |
| 20260903012119 | 84 | 95 | 2.0 | 4.0 | 0.00 | 0.00 | 0.00 | 60 | 1021.7 |
| 20260903012019 | 84 | 62 | 2.0 | 4.0 | 0.00 | 0.00 | 0.00 | 60 | 1021.7 |
| 20260903011915 | 84 | 62 | 2.0 | 4.0 | 0.00 | 0.00 | 0.00 | 59 | 1021.5 |
| 20260903011813 | 84 | 62 | 1.0 | 4.0 | 0.00 | 0.00 | 0.00 | 60 | 1021.5 |
| 20260903011713 | 84 | 72 | 1.0 | 4.0 | 0.00 | 0.00 | 0.00 | 59 | 1021.4 |
| 20260903011611 | 84 | 71 | 1.0 | 4.0 | 0.00 | 0.00 | 0.00 | 59 | 1021.5 |
| 20260903011510 | 84 | 72 | 1.0 | 4.0 | 0.00 | 0.00 | 0.00 | 60 | 1021.5 |
| 20260903011446 | 84 | 71 | 1.0 | 5.0 | 0.00 | 0.00 | 0.00 | 60 | 1021.7 |
| 20260903011433 | 84 | 72 | 1.0 | 4.0 | 0.00 | 0.00 | 0.00 | 59 | 1021.5 |
| 20260903011213 | 84 | 67 | 1.0 | 5.0 | 0.00 | 0.00 | 0.00 | 60 | 1021.5 |
| 20260903011107 | 84 | 67 | 1.0 | 5.0 | 0.00 | 0.00 | 0.00 | 59 | 1021.5 |
| 20260903011009 | 84 | 67 | 2.0 | 5.0 | 0.00 | 0.00 | 0.00 | 60 | 1021.4 |
| 20260903010908 | 84 | 67 | 2.0 | 5.0 | 0.00 | 0.00 | 0.00 | 60 | 1021.4 |
| 20260903010807 | 85 | 67 | 2.0 | 5.0 | 0.00 | 0.00 | 0.00 | 60 | 1021.4 |
| 20260903010706 | 84 | 67 | 2.0 | 5.0 | 0.00 | 0.00 | 0.00 | 60 | 1021.4 |
| 20260903010637 | 84 | 66 | 2.0 | 5.0 | 0.00 | 0.00 | 0.00 | 60 | 1021.4 |
| 20260903010626 | 84 | 67 | 2.0 | 5.0 | 0.00 | 0.00 | 0.00 | 59 | 1021.4 |
| 20260903010407 | 84 | 67 | 2.0 | 5.0 | 0.00 | 0.00 | 0.00 | 60 | 1021.4 |
| 20260903010307 | 84 | 77 | 2.0 | 4.0 | 0.00 | 0.00 | 0.00 | 60 | 1021.5 |
| 20260903010203 | 84 | 77 | 2.0 | 4.0 | 0.00 | 0.00 | 0.00 | 60 | 1021.4 |
| 20260903010104 | 84 | 82 | 2.0 | 4.0 | 0.00 | 0.00 | 0.00 | 60 | 1021.5 |
| 20260903010006 | 84 | 82 | 2.0 | 4.0 | 0.00 | 0.00 | 0.00 | 60 | 1021.5 |
| 20260903005904 | 84 | 78 | 2.0 | 4.0 | 0.00 | 0.00 | 0.00 | 60 | 1021.5 |
| 20260903005800 | 84 | 78 | 2.0 | 4.0 | 0.00 | 0.00 | 0.00 | 60 | 1021.5 |
| 20260903005741 | 84 | 78 | 2.0 | 4.0 | 0.00 | 0.00 | 0.00 | 60 | 1021.4 |
| 20260903005726 | 84 | 78 | 2.0 | 4.0 | 0.00 | 0.00 | 0.00 | 60 | 1021.4 |
| 20260903005455 | 84 | 78 | 2.0 | 4.0 | 0.00 | 0.00 | 0.00 | 60 | 1021.5 |
| 20260903005429 | 84 | 78 | 2.0 | 4.0 | 0.00 | 0.00 | 0.00 | 60 | 1021.4 |
| 20260903005418 | 84 | 78 | 2.0 | 4.0 | 0.00 | 0.00 | 0.00 | 60 | 1021.5 |
| 20260903005151 | 84 | 78 | 2.0 | 4.0 | 0.00 | 0.00 | 0.00 | 60 | 1021.5 |
| 20260903005050 | 84 | 78 | 2.0 | 4.0 | 0.00 | 0.00 | 0.00 | 60 | 1021.4 |
| 20260903004950 | 84 | 77 | 2.0 | 4.0 | 0.00 | 0.00 | 0.00 | 60 | 1021.4 |
| 20260903004847 | 84 | 77 | 2.0 | 4.0 | 0.00 | 0.00 | 0.00 | 60 | 1021.4 |
| 20260903004819 | 84 | 77 | 2.0 | 4.0 | 0.00 | 0.00 | 0.00 | 60 | 1021.3 |
| 20260903004807 | 84 | 77 | 2.0 | 4.0 | 0.00 | 0.00 | 0.00 | 60 | 1021.3 |
| 20260903004545 | 84 | 77 | 2.0 | 4.0 | 0.00 | 0.00 | 0.00 | 60 | 1021.3 |
| 20260903004443 | 84 | 70 | 2.0 | 3.0 | 0.00 | 0.00 | 0.00 | 60 | 1021.3 |
| 20260903004344 | 84 | 70 | 2.0 | 3.0 | 0.00 | 0.00 | 0.00 | 60 | 1021.4 |
| 20260903004244 | 84 | 70 | 2.0 | 4.0 | 0.00 | 0.00 | 0.00 | 60 | 1021.4 |
| 20260903004138 | 84 | 70 | 2.0 | 4.0 | 0.00 | 0.00 | 0.00 | 60 | 1021.3 |
| 20260903004041 | 84 | 65 | 1.0 | 4.0 | 0.00 | 0.00 | 0.00 | 60 | 1021.4 |
| 20260903003936 | 84 | 65 | 2.0 | 4.0 | 0.00 | 0.00 | 0.00 | 60 | 1021.4 |
| 20260903003836 | 84 | 65 | 2.0 | 4.0 | 0.00 | 0.00 | 0.00 | 59 | 1021.3 |
| 20260903003744 | 84 | 65 | 2.0 | 4.0 | 0.00 | 0.00 | 0.00 | 59 | 1021.4 |
| 20260903003639 | 84 | 65 | 2.0 | 4.0 | 0.00 | 0.00 | 0.00 | 60 | 1021.4 |
| 20260903003540 | 84 | 65 | 2.0 | 4.0 | 0.00 | 0.00 | 0.00 | 60 | 1021.4 |
| 20260903003435 | 84 | 65 | 2.0 | 4.0 | 0.00 | 0.00 | 0.00 | 59 | 1021.3 |
| 20260903003335 | 84 | 65 | 2.0 | 4.0 | 0.00 | 0.00 | 0.00 | 59 | 1021.4 |
| 20260903003236 | 84 | 71 | 2.0 | 4.0 | 0.00 | 0.00 | 0.00 | 59 | 1021.4 |
| 20260903003137 | 84 | 71 | 2.0 | 4.0 | 0.00 | 0.00 | 0.00 | 59 | 1021.4 |
| 20260903003035 | 84 | 71 | 2.0 | 4.0 | 0.00 | 0.00 | 0.00 | 59 | 1021.4 |
| 20260903002933 | 84 | 82 | 2.0 | 4.0 | 0.00 | 0.00 | 0.00 | 59 | 1021.4 |
| 20260903002912 | 84 | 82 | 2.0 | 4.0 | 0.00 | 0.00 | 0.00 | 60 | 1021.4 |
| 20260903002906 | 85 | 82 | 2.0 | 4.0 | 0.00 | 0.00 | 0.00 | 60 | 1021.5 |
| 20260903002854 | 84 | 82 | 2.0 | 4.0 | 0.00 | 0.00 | 0.00 | 59 | 1021.5 |
| 20260903002723 | 85 | 82 | 2.0 | 4.0 | 0.00 | 0.00 | 0.00 | 60 | 1021.4 |
| 20260903002707 | 85 | 82 | 2.0 | 4.0 | 0.00 | 0.00 | 0.00 | 59 | 1021.5 |
| 20260903002325 | 85 | 63 | 2.0 | 4.0 | 0.00 | 0.00 | 0.00 | 60 | 1021.5 |
| 20260903002224 | 85 | 63 | 2.0 | 4.0 | 0.00 | 0.00 | 0.00 | 60 | 1021.4 |
| 20260903002125 | 85 | 63 | 2.0 | 4.0 | 0.00 | 0.00 | 0.00 | 60 | 1021.5 |
| 20260903002052 | 85 | 63 | 2.0 | 4.0 | 0.00 | 0.00 | 0.00 | 60 | 1021.5 |
| 20260903002038 | 85 | 63 | 2.0 | 4.0 | 0.00 | 0.00 | 0.00 | 60 | 1021.5 |
| 20260903001813 | 85 | 63 | 2.0 | 4.0 | 0.00 | 0.00 | 0.00 | 60 | 1021.7 |
| 20260903001711 | 85 | 60 | 2.0 | 4.0 | 0.00 | 0.00 | 0.00 | 60 | 1021.5 |
| 20260903001609 | 85 | 54 | 2.0 | 4.0 | 0.00 | 0.00 | 0.00 | 60 | 1021.5 |
| 20260903001505 | 85 | 63 | 2.0 | 3.0 | 0.00 | 0.00 | 0.00 | 61 | 1021.4 |
| 20260903001405 | 85 | 63 | 2.0 | 3.0 | 0.00 | 0.00 | 0.00 | 60 | 1021.5 |
| 20260903001306 | 85 | 63 | 2.0 | 3.0 | 0.00 | 0.00 | 0.00 | 60 | 1021.5 |
| 20260903001204 | 85 | 63 | 2.0 | 3.0 | 0.00 | 0.00 | 0.00 | 61 | 1021.5 |
| 20260903001139 | 85 | 63 | 2.0 | 3.0 | 0.00 | 0.00 | 0.00 | 60 | 1021.4 |
| 20260903001127 | 85 | 63 | 2.0 | 3.0 | 0.00 | 0.00 | 0.00 | 61 | 1021.5 |
| 20260903000903 | 85 | 69 | 2.0 | 3.0 | 0.00 | 0.00 | 0.00 | 61 | 1021.5 |
| 20260903000803 | 85 | 69 | 2.0 | 4.0 | 0.00 | 0.00 | 0.00 | 60 | 1021.5 |
| 20260903000702 | 85 | 69 | 2.0 | 4.0 | 0.00 | 0.00 | 0.00 | 60 | 1021.5 |
| 20260903000600 | 85 | 69 | 2.0 | 4.0 | 0.00 | 0.00 | 0.00 | 60 | 1021.5 |
| 20260903000454 | 85 | 69 | 2.0 | 4.0 | 0.00 | 0.00 | 0.00 | 60 | 1021.5 |
| 20260903000432 | 85 | 73 | 1.0 | 4.0 | 0.00 | 0.00 | 0.00 | 60 | 1021.5 |
| 20260903000417 | 85 | 69 | 2.0 | 4.0 | 0.00 | 0.00 | 0.00 | 60 | 1021.4 |
| 20260903000151 | 85 | 73 | 2.0 | 4.0 | 0.00 | 0.00 | 0.00 | 60 | 1021.5 |
| 20260903000051 | 85 | 70 | 2.0 | 4.0 | 0.00 | 0.00 | 0.00 | 60 | 1021.4 |
| 20260902235953 | 85 | 70 | 1.0 | 4.0 | 0.00 | 0.00 | 0.00 | 60 | 1021.5 |
| 20260902235857 | 85 | 70 | 1.0 | 4.0 | 0.00 | 0.00 | 0.00 | 60 | 1021.5 |
| 20260902235749 | 85 | 63 | 1.0 | 4.0 | 0.00 | 0.00 | 0.00 | 60 | 1021.4 |
| 20260902235651 | 85 | 63 | 1.0 | 4.0 | 0.00 | 0.00 | 0.00 | 60 | 1021.5 |
| 20260902235617 | 85 | 49 | 1.0 | 3.0 | 0.00 | 0.00 | 0.00 | 60 | 1021.5 |
| 20260902235608 | 85 | 63 | 1.0 | 4.0 | 0.00 | 0.00 | 0.00 | 60 | 1021.5 |
| 20260902235419 | 85 | 49 | 1.0 | 3.0 | 0.00 | 0.00 | 0.00 | 60 | 1021.4 |
| 20260902235407 | 85 | 49 | 1.0 | 3.0 | 0.00 | 0.00 | 0.00 | 60 | 1021.4 |
| 20260902235142 | 85 | 49 | 1.0 | 3.0 | 0.00 | 0.00 | 0.00 | 59 | 1021.4 |
| 20260902235055 | 85 | 48 | 1.0 | 4.0 | 0.00 | 0.00 | 0.00 | 60 | 1021.4 |
| 20260902234939 | 85 | 48 | 1.0 | 4.0 | 0.00 | 0.00 | 0.00 | 59 | 1021.4 |
| 20260902234837 | 85 | 48 | 1.0 | 4.0 | 0.00 | 0.00 | 0.00 | 59 | 1021.4 |
| 20260902234814 | 85 | 47 | 1.0 | 4.0 | 0.00 | 0.00 | 0.00 | 59 | 1021.4 |
| 20260902234801 | 85 | 47 | 1.0 | 4.0 | 0.00 | 0.00 | 0.00 | 59 | 1021.4 |
| 20260902234605 | 85 | 47 | 2.0 | 4.0 | 0.00 | 0.00 | 0.00 | 59 | 1021.4 |
| 20260902234555 | 85 | 47 | 2.0 | 4.0 | 0.00 | 0.00 | 0.00 | 59 | 1021.3 |
| 20260902234336 | 85 | 47 | 2.0 | 4.0 | 0.00 | 0.00 | 0.00 | 59 | 1021.4 |
| 20260902234328 | 86 | 92 | 2.0 | 4.0 | 0.00 | 0.00 | 0.00 | 59 | 1021.4 |
| 20260902234305 | 85 | 47 | 2.0 | 4.0 | 0.00 | 0.00 | 0.00 | 59 | 1021.4 |
| 20260902234133 | 85 | 46 | 2.0 | 4.0 | 0.00 | 0.00 | 0.00 | 59 | 1021.4 |
| 20260902234126 | 86 | 92 | 2.0 | 4.0 | 0.00 | 0.00 | 0.00 | 59 | 1021.5 |
| 20260902234108 | 86 | 92 | 2.0 | 4.0 | 0.00 | 0.00 | 0.00 | 59 | 1021.4 |
| 20260902233727 | 86 | 92 | 2.0 | 4.0 | 0.00 | 0.00 | 0.00 | 59 | 1021.5 |
| 20260902233624 | 86 | 101 | 1.0 | 4.0 | 0.00 | 0.00 | 0.00 | 59 | 1021.5 |
| 20260902233602 | 86 | 99 | 1.0 | 4.0 | 0.00 | 0.00 | 0.00 | 59 | 1021.5 |
| 20260902233549 | 86 | 101 | 1.0 | 4.0 | 0.00 | 0.00 | 0.00 | 58 | 1021.5 |
| 20260902233325 | 86 | 99 | 1.0 | 4.0 | 0.00 | 0.00 | 0.00 | 59 | 1021.5 |
| 20260902233219 | 86 | 99 | 1.0 | 4.0 | 0.00 | 0.00 | 0.00 | 59 | 1021.5 |
| 20260902233152 | 86 | 99 | 1.0 | 4.0 | 0.00 | 0.00 | 0.00 | 59 | 1021.5 |
| 20260902233142 | 86 | 99 | 1.0 | 4.0 | 0.00 | 0.00 | 0.00 | 59 | 1021.5 |
| 20260902232926 | 86 | 103 | 1.0 | 4.0 | 0.00 | 0.00 | 0.00 | 58 | 1021.5 |
| 20260902232818 | 86 | 103 | 1.0 | 4.0 | 0.00 | 0.00 | 0.00 | 59 | 1021.5 |
| 20260902232717 | 86 | 103 | 1.0 | 4.0 | 0.00 | 0.00 | 0.00 | 58 | 1021.5 |
| 20260902232701 | 86 | 103 | 2.0 | 4.0 | 0.00 | 0.00 | 0.00 | 59 | 1021.5 |
| 20260902232646 | 86 | 103 | 1.0 | 4.0 | 0.00 | 0.00 | 0.00 | 58 | 1021.5 |
| 20260902232452 | 86 | 103 | 2.0 | 4.0 | 0.00 | 0.00 | 0.00 | 57 | 1021.5 |
| 20260902232439 | 86 | 103 | 2.0 | 4.0 | 0.00 | 0.00 | 0.00 | 59 | 1021.5 |
| 20260902232244 | 86 | 103 | 2.0 | 4.0 | 0.00 | 0.00 | 0.00 | 58 | 1021.5 |
| 20260902232230 | 86 | 103 | 2.0 | 4.0 | 0.00 | 0.00 | 0.00 | 58 | 1021.5 |
| 20260902232003 | 86 | 103 | 2.0 | 4.0 | 0.00 | 0.00 | 0.00 | 58 | 1021.5 |
| 20260902231905 | 86 | 86 | 2.0 | 3.0 | 0.00 | 0.00 | 0.00 | 57 | 1021.5 |
| 20260902231805 | 86 | 82 | 2.0 | 3.0 | 0.00 | 0.00 | 0.00 | 58 | 1021.4 |
| 20260902231703 | 86 | 105 | 2.0 | 6.0 | 0.00 | 0.00 | 0.00 | 58 | 1021.5 |
| 20260902231559 | 86 | 105 | 2.0 | 6.0 | 0.00 | 0.00 | 0.00 | 58 | 1021.5 |
| 20260902231459 | 86 | 109 | 2.0 | 6.0 | 0.00 | 0.00 | 0.00 | 58 | 1021.5 |
| 20260902231357 | 86 | 105 | 2.0 | 6.0 | 0.00 | 0.00 | 0.00 | 58 | 1021.5 |
| 20260902231259 | 86 | 102 | 2.0 | 6.0 | 0.00 | 0.00 | 0.00 | 58 | 1021.5 |
| 20260902231159 | 87 | 102 | 2.0 | 6.0 | 0.00 | 0.00 | 0.00 | 57 | 1021.5 |
| 20260902231058 | 86 | 101 | 2.0 | 6.0 | 0.00 | 0.00 | 0.00 | 58 | 1021.5 |
| 20260902230955 | 86 | 102 | 2.0 | 6.0 | 0.00 | 0.00 | 0.00 | 57 | 1021.4 |
| 20260902230855 | 87 | 116 | 2.0 | 6.0 | 0.00 | 0.00 | 0.00 | 57 | 1021.5 |
| 20260902230834 | 87 | 123 | 2.0 | 4.0 | 0.00 | 0.00 | 0.00 | 57 | 1021.5 |
| 20260902230819 | 87 | 117 | 2.0 | 6.0 | 0.00 | 0.00 | 0.00 | 58 | 1021.5 |
| 20260902230556 | 87 | 124 | 2.0 | 4.0 | 0.00 | 0.00 | 0.00 | 57 | 1021.5 |
| 20260902230455 | 87 | 132 | 2.0 | 4.0 | 0.00 | 0.00 | 0.00 | 57 | 1021.5 |
| 20260902230352 | 87 | 122 | 1.0 | 4.0 | 0.00 | 0.00 | 0.00 | 57 | 1021.5 |
| 20260902230254 | 87 | 122 | 1.0 | 4.0 | 0.00 | 0.00 | 0.00 | 58 | 1021.5 |
| 20260902230155 | 87 | 103 | 1.0 | 4.0 | 0.00 | 0.00 | 0.00 | 58 | 1021.5 |
| 20260902230059 | 87 | 103 | 2.0 | 4.0 | 0.00 | 0.00 | 0.00 | 59 | 1021.5 |
| 20260902230022 | 87 | 103 | 2.0 | 4.0 | 0.00 | 0.00 | 0.00 | 58 | 1021.5 |
| 20260902230013 | 87 | 103 | 2.0 | 4.0 | 0.00 | 0.00 | 0.00 | 58 | 1021.5 |
| 20260902225753 | 87 | 113 | 2.0 | 3.0 | 0.00 | 0.00 | 0.00 | 58 | 1021.7 |
| 20260902225652 | 87 | 113 | 2.0 | 3.0 | 0.00 | 0.00 | 0.00 | 58 | 1021.5 |
| 20260902225549 | 87 | 113 | 2.0 | 4.0 | 0.00 | 0.00 | 0.00 | 58 | 1021.7 |
| 20260902225447 | 87 | 94 | 2.0 | 6.0 | 0.00 | 0.00 | 0.00 | 58 | 1021.7 |
| 20260902225346 | 87 | 120 | 2.0 | 6.0 | 0.00 | 0.00 | 0.00 | 58 | 1021.7 |
| 20260902225246 | 87 | 120 | 2.0 | 6.0 | 0.00 | 0.00 | 0.00 | 58 | 1021.5 |
| 20260902225144 | 87 | 119 | 2.0 | 6.0 | 0.00 | 0.00 | 0.00 | 58 | 1021.7 |
| 20260902225105 | 87 | 99 | 2.0 | 6.0 | 0.00 | 0.00 | 0.00 | 57 | 1021.7 |
| 20260902225059 | 87 | 100 | 2.0 | 6.0 | 0.00 | 0.00 | 0.00 | 58 | 1021.7 |
| 20260902225049 | 87 | 99 | 2.0 | 6.0 | 0.00 | 0.00 | 0.00 | 58 | 1021.7 |
| 20260902225032 | 87 | 99 | 2.0 | 6.0 | 0.00 | 0.00 | 0.00 | 57 | 1021.7 |
| 20260902224640 | 87 | 112 | 2.0 | 6.0 | 0.00 | 0.00 | 0.00 | 57 | 1021.7 |
| 20260902224543 | 87 | 111 | 2.0 | 6.0 | 0.00 | 0.00 | 0.00 | 57 | 1021.7 |
| 20260902224523 | 87 | 114 | 2.0 | 4.0 | 0.00 | 0.00 | 0.00 | 58 | 1021.7 |
| 20260902224508 | 87 | 90 | 2.0 | 4.0 | 0.00 | 0.00 | 0.00 | 58 | 1021.7 |
| 20260902224238 | 87 | 114 | 2.0 | 4.0 | 0.00 | 0.00 | 0.00 | 58 | 1021.7 |
| 20260902224137 | 87 | 113 | 2.0 | 6.0 | 0.00 | 0.00 | 0.00 | 58 | 1021.5 |
| 20260902224036 | 87 | 86 | 2.0 | 6.0 | 0.00 | 0.00 | 0.00 | 57 | 1021.5 |
| 20260902223937 | 87 | 113 | 2.0 | 6.0 | 0.00 | 0.00 | 0.00 | 58 | 1021.7 |
| 20260902223909 | 87 | 105 | 2.0 | 6.0 | 0.00 | 0.00 | 0.00 | 58 | 1021.7 |
| 20260902223857 | 87 | 105 | 2.0 | 6.0 | 0.00 | 0.00 | 0.00 | 58 | 1021.8 |
| 20260902223631 | 87 | 106 | 2.0 | 6.0 | 0.00 | 0.00 | 0.00 | 58 | 1021.7 |
| 20260902223533 | 87 | 103 | 2.0 | 6.0 | 0.00 | 0.00 | 0.00 | 58 | 1021.7 |
| 20260902223432 | 87 | 103 | 2.0 | 6.0 | 0.00 | 0.00 | 0.00 | 57 | 1021.7 |
| 20260902223422 | 88 | 113 | 1.0 | 6.0 | 0.00 | 0.00 | 0.00 | 57 | 1021.5 |
| 20260902223359 | 87 | 104 | 2.0 | 6.0 | 0.00 | 0.00 | 0.00 | 57 | 1021.7 |
| 20260902223225 | 87 | 103 | 2.0 | 6.0 | 0.00 | 0.00 | 0.00 | 57 | 1021.7 |
| 20260902223159 | 88 | 113 | 2.0 | 6.0 | 0.00 | 0.00 | 0.00 | 58 | 1021.7 |
| 20260902223043 | 88 | 119 | 1.0 | 6.0 | 0.00 | 0.00 | 0.00 | 57 | 1021.5 |
| 20260902223027 | 88 | 113 | 2.0 | 6.0 | 0.00 | 0.00 | 0.00 | 57 | 1021.7 |
| 20260902223001 | 88 | 113 | 2.0 | 6.0 | 0.00 | 0.00 | 0.00 | 57 | 1021.7 |
| 20260902222612 | 88 | 90 | 1.0 | 6.0 | 0.00 | 0.00 | 0.00 | 57 | 1021.7 |
| 20260902222512 | 88 | 83 | 2.0 | 6.0 | 0.00 | 0.00 | 0.00 | 57 | 1021.5 |
| 20260902222451 | 88 | 118 | 2.0 | 4.0 | 0.00 | 0.00 | 0.00 | 57 | 1021.7 |
| 20260902222441 | 88 | 105 | 2.0 | 4.0 | 0.00 | 0.00 | 0.00 | 58 | 1021.7 |
| 20260902222208 | 88 | 63 | 2.0 | 4.0 | 0.00 | 0.00 | 0.00 | 57 | 1021.7 |
| 20260902222107 | 88 | 63 | 2.0 | 4.0 | 0.00 | 0.00 | 0.00 | 57 | 1021.7 |
| 20260902222009 | 88 | 63 | 2.0 | 4.0 | 0.00 | 0.00 | 0.00 | 58 | 1021.7 |
| 20260902221904 | 88 | 63 | 2.0 | 4.0 | 0.00 | 0.00 | 0.00 | 57 | 1021.7 |
| 20260902221805 | 88 | 63 | 3.0 | 5.0 | 0.00 | 0.00 | 0.00 | 58 | 1021.7 |
| 20260902221655 | 88 | 63 | 3.0 | 5.0 | 0.00 | 0.00 | 0.00 | 57 | 1021.7 |
| 20260902221629 | 88 | 62 | 3.0 | 5.0 | 0.00 | 0.00 | 0.00 | 57 | 1021.7 |
| 20260902221618 | 88 | 64 | 3.0 | 5.0 | 0.00 | 0.00 | 0.00 | 57 | 1021.7 |
| 20260902221353 | 88 | 62 | 3.0 | 5.0 | 0.00 | 0.00 | 0.00 | 57 | 1021.8 |
| 20260902221251 | 88 | 55 | 3.0 | 5.0 | 0.00 | 0.00 | 0.00 | 57 | 1021.7 |
| 20260902221145 | 88 | 47 | 3.0 | 5.0 | 0.00 | 0.00 | 0.00 | 57 | 1021.8 |
| 20260902221058 | 88 | 65 | 3.0 | 6.0 | 0.00 | 0.00 | 0.00 | 57 | 1021.7 |
| 20260902220946 | 88 | 62 | 3.0 | 6.0 | 0.00 | 0.00 | 0.00 | 56 | 1021.7 |
| 20260902220843 | 88 | 63 | 3.0 | 6.0 | 0.00 | 0.00 | 0.00 | 56 | 1021.5 |
| 20260902220745 | 88 | 40 | 3.0 | 6.0 | 0.00 | 0.00 | 0.00 | 56 | 1021.8 |
| 20260902220640 | 88 | 56 | 3.0 | 6.0 | 0.00 | 0.00 | 0.00 | 56 | 1021.7 |
| 20260902220537 | 89 | 57 | 3.0 | 6.0 | 0.00 | 0.00 | 0.00 | 56 | 1021.7 |
| 20260902220437 | 89 | 60 | 3.0 | 7.0 | 0.00 | 0.00 | 0.00 | 56 | 1021.8 |
| 20260902220334 | 89 | 60 | 4.0 | 7.0 | 0.00 | 0.00 | 0.00 | 56 | 1021.7 |
| 20260902220238 | 89 | 98 | 3.0 | 7.0 | 0.00 | 0.00 | 0.00 | 55 | 1021.8 |
| 20260902220133 | 89 | 77 | 3.0 | 7.0 | 0.00 | 0.00 | 0.00 | 55 | 1021.8 |
| 20260902220033 | 89 | 74 | 3.0 | 7.0 | 0.00 | 0.00 | 0.00 | 54 | 1021.8 |
| 20260902215932 | 89 | 63 | 3.0 | 7.0 | 0.00 | 0.00 | 0.00 | 54 | 1021.8 |
| 20260902215834 | 89 | 44 | 3.0 | 7.0 | 0.00 | 0.00 | 0.00 | 55 | 1021.8 |
| 20260902215810 | 90 | 80 | 2.0 | 7.0 | 0.00 | 0.00 | 0.00 | 55 | 1021.8 |
| 20260902215757 | 89 | 55 | 3.0 | 7.0 | 0.00 | 0.00 | 0.00 | 56 | 1021.8 |
| 20260902215533 | 90 | 79 | 2.0 | 7.0 | 0.00 | 0.00 | 0.00 | 54 | 1021.8 |
| 20260902215434 | 90 | 69 | 2.0 | 6.0 | 0.00 | 0.00 | 0.00 | 55 | 1021.8 |
| 20260902215332 | 90 | 49 | 2.0 | 6.0 | 0.00 | 0.00 | 0.00 | 55 | 1021.8 |
| 20260902215233 | 90 | 67 | 1.0 | 6.0 | 0.00 | 0.00 | 0.00 | 54 | 1021.8 |
| 20260902215210 | 91 | 52 | 1.0 | 4.0 | 0.00 | 0.00 | 0.00 | 54 | 1021.8 |
| 20260902215158 | 90 | 71 | 1.0 | 4.0 | 0.00 | 0.00 | 0.00 | 54 | 1021.7 |
| 20260902215001 | 91 | 51 | 1.0 | 5.0 | 0.00 | 0.00 | 0.00 | 53 | 1021.8 |
| 20260902214946 | 91 | 52 | 1.0 | 4.0 | 0.00 | 0.00 | 0.00 | 54 | 1021.8 |
| 20260902214921 | 91 | 52 | 1.0 | 4.0 | 0.00 | 0.00 | 0.00 | 55 | 1021.8 |
| 20260902214750 | 91 | 52 | 1.0 | 4.0 | 0.00 | 0.00 | 0.00 | 55 | 1021.8 |
| 20260902214528 | 91 | 52 | 1.0 | 5.0 | 0.00 | 0.00 | 0.00 | 53 | 1021.8 |
| 20260902214429 | 91 | 48 | 1.0 | 5.0 | 0.00 | 0.00 | 0.00 | 55 | 1021.8 |
| 20260902214330 | 91 | 45 | 2.0 | 6.0 | 0.00 | 0.00 | 0.00 | 54 | 1021.8 |
| 20260902214232 | 91 | 45 | 2.0 | 6.0 | 0.00 | 0.00 | 0.00 | 54 | 1021.8 |
| 20260902214208 | 91 | 45 | 3.0 | 8.0 | 0.00 | 0.00 | 0.00 | 54 | 1021.8 |
| 20260902214156 | 91 | 45 | 2.0 | 8.0 | 0.00 | 0.00 | 0.00 | 54 | 1021.8 |
| 20260902213928 | 91 | 44 | 3.0 | 8.0 | 0.00 | 0.00 | 0.00 | 54 | 1021.8 |
| 20260902213825 | 90 | 44 | 3.0 | 8.0 | 0.00 | 0.00 | 0.00 | 54 | 1021.8 |
| 20260902213726 | 91 | 44 | 3.0 | 8.0 | 0.00 | 0.00 | 0.00 | 55 | 1021.7 |
| 20260902213627 | 90 | 53 | 3.0 | 8.0 | 0.00 | 0.00 | 0.00 | 55 | 1021.7 |
| 20260902213529 | 90 | 100 | 3.0 | 8.0 | 0.00 | 0.00 | 0.00 | 55 | 1021.7 |
| 20260902213427 | 90 | 97 | 3.0 | 8.0 | 0.00 | 0.00 | 0.00 | 54 | 1021.8 |
| 20260902213325 | 90 | 100 | 3.0 | 9.0 | 0.00 | 0.00 | 0.00 | 54 | 1021.7 |
| 20260902213310 | 90 | 73 | 2.0 | 9.0 | 0.00 | 0.00 | 0.00 | 54 | 1021.8 |
| 20260902213254 | 90 | 70 | 3.0 | 9.0 | 0.00 | 0.00 | 0.00 | 55 | 1021.7 |
| 20260902213218 | 90 | 53 | 2.0 | 9.0 | 0.00 | 0.00 | 0.00 | 55 | 1021.8 |
| 20260902213053 | 90 | 85 | 2.0 | 9.0 | 0.00 | 0.00 | 0.00 | 54 | 1021.8 |
| 20260902212836 | 90 | 57 | 2.0 | 9.0 | 0.00 | 0.00 | 0.00 | 54 | 1021.7 |
| 20260902212824 | 90 | 91 | 2.0 | 9.0 | 0.00 | 0.00 | 0.00 | 54 | 1021.8 |
| 20260902212756 | 90 | 55 | 2.0 | 9.0 | 0.00 | 0.00 | 0.00 | 54 | 1021.8 |
| 20260902212730 | 90 | 45 | 2.0 | 9.0 | 0.00 | 0.00 | 0.00 | 54 | 1021.7 |
| 20260902212559 | 90 | 34 | 2.0 | 9.0 | 0.00 | 0.00 | 0.00 | 54 | 1021.7 |
| 20260902212327 | 90 | 94 | 2.0 | 5.0 | 0.00 | 0.00 | 0.00 | 54 | 1021.7 |
| 20260902212225 | 90 | 94 | 2.0 | 5.0 | 0.00 | 0.00 | 0.00 | 54 | 1021.7 |
| 20260902212131 | 90 | 94 | 2.0 | 5.0 | 0.00 | 0.00 | 0.00 | 54 | 1021.8 |
| 20260902212027 | 91 | 355 | 2.0 | 5.0 | 0.00 | 0.00 | 0.00 | 53 | 1021.8 |
| 20260902211925 | 91 | 355 | 2.0 | 6.0 | 0.00 | 0.00 | 0.00 | 53 | 1021.8 |
| 20260902211824 | 91 | 355 | 2.0 | 6.0 | 0.00 | 0.00 | 0.00 | 53 | 1021.8 |
| 20260902211727 | 91 | 355 | 2.0 | 6.0 | 0.00 | 0.00 | 0.00 | 52 | 1021.9 |
| 20260902211701 | 91 | 347 | 2.0 | 6.0 | 0.00 | 0.00 | 0.00 | 55 | 1021.9 |
| 20260902211644 | 91 | 355 | 2.0 | 6.0 | 0.00 | 0.00 | 0.00 | 53 | 1021.9 |
| 20260902211418 | 91 | 17 | 2.0 | 6.0 | 0.00 | 0.00 | 0.00 | 55 | 1021.9 |
| 20260902211328 | 91 | 30 | 2.0 | 6.0 | 0.00 | 0.00 | 0.00 | 55 | 1021.9 |
| 20260902211216 | 91 | 30 | 2.0 | 6.0 | 0.00 | 0.00 | 0.00 | 53 | 1021.9 |
| 20260902211112 | 91 | 316 | 2.0 | 6.0 | 0.00 | 0.00 | 0.00 | 53 | 1021.9 |
| 20260902211014 | 91 | 321 | 2.0 | 6.0 | 0.00 | 0.00 | 0.00 | 53 | 1021.9 |
| 20260902210912 | 91 | 11 | 2.0 | 4.0 | 0.00 | 0.00 | 0.00 | 53 | 1022.0 |
| 20260902210836 | 91 | 35 | 2.0 | 4.0 | 0.00 | 0.00 | 0.00 | 53 | 1022.0 |
| 20260902210830 | 90 | 35 | 2.0 | 4.0 | 0.00 | 0.00 | 0.00 | 54 | 1021.9 |
| 20260902210820 | 91 | 11 | 2.0 | 4.0 | 0.00 | 0.00 | 0.00 | 53 | 1021.9 |
| 20260902210756 | 91 | 11 | 2.0 | 4.0 | 0.00 | 0.00 | 0.00 | 54 | 1022.0 |
| 20260902210414 | 90 | 35 | 2.0 | 4.0 | 0.00 | 0.00 | 0.00 | 54 | 1022.0 |
| 20260902210315 | 90 | 355 | 2.0 | 4.0 | 0.00 | 0.00 | 0.00 | 53 | 1022.0 |
| 20260902210212 | 90 | 355 | 2.0 | 4.0 | 0.00 | 0.00 | 0.00 | 53 | 1022.0 |
| 20260902210114 | 90 | 47 | 2.0 | 4.0 | 0.00 | 0.00 | 0.00 | 54 | 1022.1 |
| 20260902210015 | 90 | 54 | 2.0 | 4.0 | 0.00 | 0.00 | 0.00 | 55 | 1022.1 |
| 20260902205912 | 90 | 42 | 2.0 | 4.0 | 0.00 | 0.00 | 0.00 | 55 | 1022.1 |
| 20260902205812 | 90 | 34 | 2.0 | 4.0 | 0.00 | 0.00 | 0.00 | 55 | 1022.1 |
| 20260902205805 | 90 | 75 | 2.0 | 4.0 | 0.00 | 0.00 | 0.00 | 56 | 1022.1 |
| 20260902205801 | 90 | 77 | 2.0 | 4.0 | 0.00 | 0.00 | 0.00 | 56 | 1022.1 |
| 20260902205755 | 89 | 311 | 2.0 | 4.0 | 0.00 | 0.00 | 0.00 | 58 | 1022.0 |
| 20260902205749 | 89 | 311 | 2.0 | 4.0 | 0.00 | 0.00 | 0.00 | 58 | 1022.1 |
| 20260902205737 | 90 | 34 | 2.0 | 4.0 | 0.00 | 0.00 | 0.00 | 55 | 1022.1 |
| 20260902205716 | 90 | 38 | 2.0 | 4.0 | 0.00 | 0.00 | 0.00 | 55 | 1022.1 |
| 20260902205400 | 89 | 65 | 2.0 | 4.0 | 0.00 | 0.00 | 0.00 | 57 | 1022.1 |
| 20260902205009 | 89 | 79 | 2.0 | 6.0 | 0.00 | 0.00 | 0.00 | 58 | 1022.1 |
| 20260902204911 | 89 | 60 | 2.0 | 6.0 | 0.00 | 0.00 | 0.00 | 56 | 1022.0 |
| 20260902204808 | 89 | 327 | 2.0 | 6.0 | 0.00 | 0.00 | 0.00 | 56 | 1022.0 |
| 20260902204710 | 89 | 327 | 2.0 | 6.0 | 0.00 | 0.00 | 0.00 | 56 | 1022.0 |
| 20260902204612 | 88 | 327 | 2.0 | 6.0 | 0.00 | 0.00 | 0.00 | 57 | 1022.1 |
| 20260902204510 | 88 | 327 | 2.0 | 6.0 | 0.00 | 0.00 | 0.00 | 58 | 1022.1 |
| 20260902204410 | 88 | 306 | 2.0 | 6.0 | 0.00 | 0.00 | 0.00 | 59 | 1022.1 |
| 20260902204309 | 88 | 75 | 2.0 | 6.0 | 0.00 | 0.00 | 0.00 | 59 | 1022.1 |
| 20260902204207 | 87 | 74 | 2.0 | 6.0 | 0.00 | 0.00 | 0.00 | 59 | 1022.1 |
| 20260902204104 | 87 | 63 | 2.0 | 6.0 | 0.00 | 0.00 | 0.00 | 59 | 1022.1 |
| 20260902204035 | 87 | 37 | 2.0 | 3.0 | 0.00 | 0.00 | 0.00 | 61 | 1022.1 |
| 20260902204025 | 87 | 64 | 1.0 | 4.0 | 0.00 | 0.00 | 0.00 | 60 | 1022.1 |
| 20260902203759 | 87 | 37 | 2.0 | 4.0 | 0.00 | 0.00 | 0.00 | 61 | 1022.1 |
| 20260902203700 | 86 | 37 | 2.0 | 4.0 | 0.00 | 0.00 | 0.00 | 61 | 1022.2 |
| 20260902203559 | 86 | 30 | 2.0 | 4.0 | 0.00 | 0.00 | 0.00 | 61 | 1022.2 |
| 20260902203500 | 86 | 30 | 2.0 | 4.0 | 0.00 | 0.00 | 0.00 | 60 | 1022.2 |
| 20260902203401 | 86 | 30 | 2.0 | 4.0 | 0.00 | 0.00 | 0.00 | 62 | 1022.1 |
| 20260902203257 | 86 | 30 | 2.0 | 5.0 | 0.00 | 0.00 | 0.00 | 61 | 1022.2 |
| 20260902203232 | 85 | 33 | 2.0 | 5.0 | 0.00 | 0.00 | 0.00 | 62 | 1022.3 |
| 20260902203221 | 85 | 33 | 2.0 | 5.0 | 0.00 | 0.00 | 0.00 | 61 | 1022.2 |
| 20260902202957 | 85 | 65 | 2.0 | 5.0 | 0.00 | 0.00 | 0.00 | 63 | 1022.3 |
| 20260902202853 | 85 | 65 | 2.0 | 5.0 | 0.00 | 0.00 | 0.00 | 63 | 1022.2 |
| 20260902202758 | 85 | 65 | 2.0 | 5.0 | 0.00 | 0.00 | 0.00 | 62 | 1022.3 |
| 20260902202652 | 85 | 63 | 2.0 | 5.0 | 0.00 | 0.00 | 0.00 | 62 | 1022.3 |
| 20260902202626 | 85 | 63 | 2.0 | 5.0 | 0.00 | 0.00 | 0.00 | 62 | 1022.3 |
| 20260902202613 | 85 | 63 | 2.0 | 5.0 | 0.00 | 0.00 | 0.00 | 62 | 1022.2 |
| 20260902202347 | 85 | 62 | 2.0 | 5.0 | 0.00 | 0.00 | 0.00 | 63 | 1022.4 |
| 20260902202247 | 85 | 52 | 2.0 | 5.0 | 0.00 | 0.00 | 0.00 | 62 | 1022.3 |
| 20260902202148 | 85 | 75 | 2.0 | 5.0 | 0.00 | 0.00 | 0.00 | 63 | 1022.3 |
| 20260902202047 | 85 | 75 | 2.0 | 5.0 | 0.00 | 0.00 | 0.00 | 62 | 1022.4 |
| 20260902201946 | 85 | 74 | 2.0 | 5.0 | 0.00 | 0.00 | 0.00 | 62 | 1022.4 |
| 20260902201847 | 85 | 60 | 2.0 | 5.0 | 0.00 | 0.00 | 0.00 | 64 | 1022.3 |
| 20260902201746 | 85 | 55 | 2.0 | 5.0 | 0.00 | 0.00 | 0.00 | 64 | 1022.4 |
| 20260902201644 | 85 | 64 | 2.0 | 5.0 | 0.00 | 0.00 | 0.00 | 64 | 1022.4 |
| 20260902201542 | 85 | 64 | 2.0 | 5.0 | 0.00 | 0.00 | 0.00 | 64 | 1022.4 |
| 20260902201440 | 85 | 65 | 2.0 | 3.0 | 0.00 | 0.00 | 0.00 | 65 | 1022.4 |
| 20260902201340 | 85 | 11 | 1.0 | 3.0 | 0.00 | 0.00 | 0.00 | 66 | 1022.4 |
| 20260902201312 | 85 | 5 | 1.0 | 3.0 | 0.00 | 0.00 | 0.00 | 65 | 1022.5 |
| 20260902201303 | 85 | 5 | 1.0 | 3.0 | 0.00 | 0.00 | 0.00 | 65 | 1022.4 |
| 20260902201046 | 85 | 5 | 1.0 | 3.0 | 0.00 | 0.00 | 0.00 | 63 | 1022.5 |
| 20260902200942 | 85 | 5 | 1.0 | 3.0 | 0.00 | 0.00 | 0.00 | 64 | 1022.5 |
| 20260902200854 | 86 | 38 | 1.0 | 4.0 | 0.00 | 0.00 | 0.00 | 63 | 1022.5 |
| 20260902200842 | 85 | 0 | 1.0 | 3.0 | 0.00 | 0.00 | 0.00 | 63 | 1022.4 |
| 20260902200818 | 85 | 0 | 1.0 | 3.0 | 0.00 | 0.00 | 0.00 | 63 | 1022.5 |
| 20260902200650 | 85 | 0 | 1.0 | 3.0 | 0.00 | 0.00 | 0.00 | 63 | 1022.4 |
| 20260902200627 | 86 | 36 | 1.0 | 3.0 | 0.00 | 0.00 | 0.00 | 63 | 1022.4 |
| 20260902200504 | 86 | 38 | 1.0 | 3.0 | 0.00 | 0.00 | 0.00 | 63 | 1022.5 |
| 20260902200238 | 86 | 45 | 1.0 | 5.0 | 0.00 | 0.00 | 0.00 | 62 | 1022.5 |
| 20260902200138 | 86 | 45 | 1.0 | 5.0 | 0.00 | 0.00 | 0.00 | 63 | 1022.5 |
| 20260902200038 | 86 | 45 | 1.0 | 5.0 | 0.00 | 0.00 | 0.00 | 63 | 1022.6 |
| 20260902195939 | 86 | 59 | 2.0 | 5.0 | 0.00 | 0.00 | 0.00 | 63 | 1022.5 |
| 20260902195835 | 86 | 34 | 2.0 | 7.0 | 0.00 | 0.00 | 0.00 | 63 | 1022.5 |
| 20260902195732 | 86 | 34 | 2.0 | 7.0 | 0.00 | 0.00 | 0.00 | 63 | 1022.5 |
| 20260902195633 | 86 | 35 | 2.0 | 7.0 | 0.00 | 0.00 | 0.00 | 62 | 1022.6 |
| 20260902195600 | 87 | 46 | 2.0 | 7.0 | 0.00 | 0.00 | 0.00 | 61 | 1022.6 |
| 20260902195555 | 87 | 38 | 2.0 | 7.0 | 0.00 | 0.00 | 0.00 | 60 | 1022.7 |
| 20260902195540 | 87 | 35 | 2.0 | 7.0 | 0.00 | 0.00 | 0.00 | 63 | 1022.6 |
| 20260902195512 | 87 | 57 | 2.0 | 7.0 | 0.00 | 0.00 | 0.00 | 61 | 1022.6 |
| 20260902195205 | 87 | 53 | 3.0 | 7.0 | 0.00 | 0.00 | 0.00 | 59 | 1022.6 |
| 20260902195155 | 87 | 53 | 3.0 | 7.0 | 0.00 | 0.00 | 0.00 | 60 | 1022.6 |
| 20260902194959 | 87 | 53 | 3.0 | 5.0 | 0.00 | 0.00 | 0.00 | 61 | 1022.7 |
| 20260902194950 | 87 | 61 | 3.0 | 7.0 | 0.00 | 0.00 | 0.00 | 61 | 1022.6 |
| 20260902194732 | 87 | 61 | 3.0 | 5.0 | 0.00 | 0.00 | 0.00 | 63 | 1022.7 |
| 20260902194705 | 87 | 30 | 3.0 | 5.0 | 0.00 | 0.00 | 0.00 | 62 | 1022.7 |
| 20260902194653 | 87 | 15 | 3.0 | 5.0 | 0.00 | 0.00 | 0.00 | 62 | 1022.6 |
| 20260902194429 | 87 | 53 | 3.0 | 5.0 | 0.00 | 0.00 | 0.00 | 61 | 1022.7 |
| 20260902194328 | 87 | 61 | 3.0 | 5.0 | 0.00 | 0.00 | 0.00 | 62 | 1022.7 |
| 20260902194230 | 87 | 51 | 3.0 | 5.0 | 0.00 | 0.00 | 0.00 | 61 | 1022.8 |
| 20260902194210 | 88 | 68 | 3.0 | 5.0 | 0.00 | 0.00 | 0.00 | 62 | 1022.8 |
| 20260902194156 | 87 | 50 | 3.0 | 5.0 | 0.00 | 0.00 | 0.00 | 59 | 1022.8 |
| 20260902193924 | 88 | 65 | 3.0 | 5.0 | 0.00 | 0.00 | 0.00 | 61 | 1022.8 |
| 20260902193825 | 88 | 87 | 3.0 | 5.0 | 0.00 | 0.00 | 0.00 | 60 | 1022.9 |
| 20260902193722 | 88 | 55 | 3.0 | 5.0 | 0.00 | 0.00 | 0.00 | 60 | 1022.8 |
| 20260902193616 | 89 | 63 | 3.0 | 5.0 | 0.00 | 0.00 | 0.00 | 60 | 1022.9 |
| 20260902193553 | 89 | 46 | 2.0 | 7.0 | 0.00 | 0.00 | 0.00 | 57 | 1022.8 |
| 20260902193542 | 89 | 67 | 3.0 | 7.0 | 0.00 | 0.00 | 0.00 | 57 | 1022.9 |
| 20260902193317 | 89 | 55 | 2.0 | 7.0 | 0.00 | 0.00 | 0.00 | 57 | 1022.9 |
| 20260902193214 | 89 | 71 | 2.0 | 7.0 | 0.00 | 0.00 | 0.00 | 57 | 1023.0 |
| 20260902193109 | 90 | 62 | 2.0 | 7.0 | 0.00 | 0.00 | 0.00 | 56 | 1022.9 |
| 20260902193008 | 90 | 46 | 3.0 | 7.0 | 0.00 | 0.00 | 0.00 | 56 | 1022.9 |
| 20260902192943 | 91 | 46 | 2.0 | 7.0 | 0.00 | 0.00 | 0.00 | 54 | 1022.9 |
| 20260902192931 | 90 | 46 | 3.0 | 7.0 | 0.00 | 0.00 | 0.00 | 54 | 1022.9 |
| 20260902192707 | 91 | 88 | 2.0 | 7.0 | 0.00 | 0.00 | 0.00 | 55 | 1022.9 |
| 20260902192612 | 91 | 89 | 2.0 | 7.0 | 0.00 | 0.00 | 0.00 | 54 | 1022.9 |
| 20260902192511 | 91 | 51 | 2.0 | 6.0 | 0.00 | 0.00 | 0.00 | 54 | 1022.9 |
| 20260902192411 | 92 | 59 | 2.0 | 6.0 | 0.00 | 0.00 | 0.00 | 54 | 1022.9 |
| 20260902192307 | 92 | 59 | 2.0 | 6.0 | 0.00 | 0.00 | 0.00 | 53 | 1022.9 |
| 20260902192206 | 92 | 74 | 2.0 | 6.0 | 0.00 | 0.00 | 0.00 | 53 | 1022.9 |
| 20260902192142 | 92 | 75 | 2.0 | 6.0 | 0.00 | 0.00 | 0.00 | 54 | 1022.9 |
| 20260902192129 | 92 | 73 | 2.0 | 6.0 | 0.00 | 0.00 | 0.00 | 53 | 1022.9 |
| 20260902192000 | 92 | 67 | 2.0 | 6.0 | 0.00 | 0.00 | 0.00 | 55 | 1022.9 |
| 20260902191954 | 92 | 103 | 2.0 | 6.0 | 0.00 | 0.00 | 0.00 | 54 | 1022.9 |
| 20260902191938 | 92 | 80 | 2.0 | 6.0 | 0.00 | 0.00 | 0.00 | 53 | 1022.9 |
| 20260902191748 | 92 | 38 | 2.0 | 6.0 | 0.00 | 0.00 | 0.00 | 55 | 1022.9 |
| 20260902191622 | 92 | 298 | 2.0 | 6.0 | 0.00 | 0.00 | 0.00 | 55 | 1023.0 |
| 20260902191358 | 92 | 46 | 2.0 | 6.0 | 0.00 | 0.00 | 0.00 | 55 | 1023.0 |
| 20260902191259 | 91 | 76 | 2.0 | 6.0 | 0.00 | 0.00 | 0.00 | 55 | 1022.9 |
| 20260902191200 | 91 | 80 | 2.0 | 6.0 | 0.00 | 0.00 | 0.00 | 56 | 1022.9 |
| 20260902191132 | 91 | 184 | 2.0 | 6.0 | 0.00 | 0.00 | 0.00 | 54 | 1022.9 |
| 20260902191120 | 91 | 80 | 1.0 | 6.0 | 0.00 | 0.00 | 0.00 | 54 | 1022.9 |
| 20260902190855 | 91 | 167 | 2.0 | 6.0 | 0.00 | 0.00 | 0.00 | 55 | 1022.9 |
| 20260902190759 | 91 | 191 | 1.0 | 6.0 | 0.00 | 0.00 | 0.00 | 58 | 1022.9 |
| 20260902190653 | 90 | 324 | 1.0 | 5.0 | 0.00 | 0.00 | 0.00 | 57 | 1023.0 |
| 20260902190553 | 90 | 324 | 1.0 | 5.0 | 0.00 | 0.00 | 0.00 | 56 | 1023.0 |
| 20260902190507 | 89 | 233 | 2.0 | 5.0 | 0.00 | 0.00 | 0.00 | 57 | 1022.9 |
| 20260902190455 | 90 | 275 | 1.0 | 5.0 | 0.00 | 0.00 | 0.00 | 56 | 1023.0 |
| 20260902190448 | 89 | 14 | 2.0 | 5.0 | 0.00 | 0.00 | 0.00 | 56 | 1023.0 |
| 20260902190429 | 90 | 280 | 2.0 | 5.0 | 0.00 | 0.00 | 0.00 | 56 | 1022.9 |
| 20260902190050 | 89 | 14 | 2.0 | 5.0 | 0.00 | 0.00 | 0.00 | 57 | 1023.0 |
| 20260902185948 | 89 | 16 | 2.0 | 5.0 | 0.00 | 0.00 | 0.00 | 56 | 1023.0 |
| 20260902185832 | 89 | 311 | 2.0 | 5.0 | 0.00 | 0.00 | 0.00 | 57 | 1023.0 |
| 20260902185734 | 89 | 285 | 2.0 | 6.0 | 0.00 | 0.00 | 0.00 | 57 | 1023.0 |
| 20260902185632 | 89 | 285 | 2.0 | 6.0 | 0.00 | 0.00 | 0.00 | 56 | 1023.0 |
| 20260902185534 | 89 | 285 | 2.0 | 6.0 | 0.00 | 0.00 | 0.00 | 56 | 1023.0 |
| 20260902185510 | 88 | 355 | 2.0 | 6.0 | 0.00 | 0.00 | 0.00 | 58 | 1022.9 |
| 20260902185456 | 88 | 285 | 2.0 | 6.0 | 0.00 | 0.00 | 0.00 | 59 | 1023.0 |
| 20260902185231 | 88 | 355 | 2.0 | 6.0 | 0.00 | 0.00 | 0.00 | 58 | 1023.0 |
| 20260902185133 | 88 | 355 | 2.0 | 6.0 | 0.00 | 0.00 | 0.00 | 58 | 1023.0 |
| 20260902185028 | 88 | 355 | 2.0 | 6.0 | 0.00 | 0.00 | 0.00 | 57 | 1023.1 |
| 20260902184927 | 88 | 330 | 1.0 | 6.0 | 0.00 | 0.00 | 0.00 | 57 | 1023.1 |
| 20260902184820 | 87 | 300 | 1.0 | 5.0 | 0.00 | 0.00 | 0.00 | 59 | 1023.1 |
| 20260902184721 | 87 | 201 | 1.0 | 5.0 | 0.00 | 0.00 | 0.00 | 61 | 1023.1 |
| 20260902184622 | 87 | 238 | 1.0 | 4.0 | 0.00 | 0.00 | 0.00 | 60 | 1023.1 |
| 20260902184521 | 87 | 238 | 1.0 | 4.0 | 0.00 | 0.00 | 0.00 | 59 | 1023.1 |
| 20260902184422 | 87 | 255 | 1.0 | 4.0 | 0.00 | 0.00 | 0.00 | 60 | 1023.1 |